GFSFLT2_925_spd_000.txt.gz
Wind_Speed
12 10 7 5 3 2 1 2 2 2 2 2 2 3 4 5 4 4 4 6 7 8 9 10 10 8 7 6 5 3 6 6
10 9 6 5 3 2 0 2 3 3 3 4 4 4 5 5 5 6 7 8 9 10 10 10 9 7 7 7 6 5 5 6
11 9 7 4 2 2 1 1 2 3 5 6 6 5 5 6 7 8 8 8 8 10 10 9 9 8 8 8 7 6 6 8
13 11 7 6 4 4 3 3 5 5 6 8 7 7 7 7 8 9 9 10 9 8 8 9 9 8 8 8 8 9 9 8
13 10 9 8 9 9 8 7 8 8 8 9 10 10 11 10 11 10 11 10 9 8 7 6 6 7 7 10 12 13 12 12
14 10 9 9 11 14 13 12 11 11 11 11 12 12 13 13 13 13 13 12 11 10 9 9 9 10 10 9 9 10 12 13
15 12 10 9 10 11 12 13 14 13 14 14 14 14 15 15 16 16 15 13 11 10 10 9 6 4 4 6 7 9 9 10
17 13 10 9 8 7 8 10 12 13 16 16 16 16 17 17 17 17 16 14 13 11 9 8 7 5 5 6 7 8 9 11
19 13 9 7 6 7 8 9 11 13 14 15 16 17 17 17 17 17 18 16 14 12 11 10 7 6 6 5 5 7 7 9
15 11 8 6 6 7 9 10 11 13 14 15 17 18 17 17 18 18 17 18 16 15 13 11 9 8 7 7 6 6 5 9
15 11 8 5 6 8 10 12 13 13 15 18 20 21 20 21 21 20 19 19 20 19 17 15 13 11 10 9 8 8 5 4
13 10 8 5 5 9 12 14 15 15 17 20 21 23 25 26 26 26 24 24 25 23 22 20 19 15 13 13 13 12 10 3
13 10 9 6 8 11 14 16 17 17 19 22 24 26 28 29 32 32 30 30 31 29 27 24 22 18 13 13 15 12 12 8
12 10 9 11 12 14 13 16 20 23 26 28 29 29 33 37 38 39 38 37 36 34 32 30 28 23 9 3 2 5 11 10
10 11 12 12 14 17 19 22 24 27 30 30 30 36 37 35 38 44 45 44 42 41 39 36 30 26 24 10 1 5 1 5
9 11 11 11 12 14 16 18 22 28 31 33 32 30 32 31 30 34 44 48 45 47 43 41 35 24 18 19 10 4 3 2
9 13 14 17 20 21 21 22 25 29 33 32 30 32 30 30 31 29 33 39 43 41 34 27 25 13 4 5 6 6 6 2
17 17 18 20 21 21 21 25 30 34 36 36 35 34 29 27 26 24 20 18 18 14 14 15 13 11 8 5 4 3 1 2
16 16 20 21 18 19 22 27 32 36 38 38 36 33 25 21 15 1 11 16 17 17 15 13 10 13 10 12 6 8 11 13
18 16 23 24 22 22 22 27 31 35 37 37 33 22 10 1 7 12 13 10 7 8 9 10 14 15 11 9 11 12 11 14

GFSFLT2_925_spd_003.txt.gz
Wind_Speed
11 8 6 4 2 1 1 1 1 1 2 3 3 4 4 5 4 5 6 8 9 9 9 9 8 7 6 5 3 1 3 4
10 7 5 3 2 1 0 1 2 2 3 4 5 6 6 5 5 5 6 8 10 11 10 10 9 6 5 4 3 1 2 2
11 8 5 4 4 3 2 1 1 2 4 5 5 6 6 6 6 7 8 9 10 11 11 10 8 7 6 5 5 4 4 4
13 9 7 4 3 3 2 2 3 4 6 7 7 7 9 9 9 10 10 11 12 12 11 9 8 5 5 5 5 6 4 5
13 11 9 7 7 6 5 5 6 7 8 8 10 11 11 12 13 13 12 11 12 12 11 10 9 8 7 7 7 6 5 5
14 12 11 8 8 10 10 10 10 10 11 11 12 14 15 14 16 16 15 13 13 11 12 12 11 9 7 6 5 4 3 3
15 13 11 8 9 10 11 13 13 13 14 14 15 16 16 17 18 18 17 15 13 11 10 10 8 6 4 3 3 3 4 4
16 13 8 7 7 6 6 8 10 12 13 15 15 16 18 19 20 19 19 17 15 14 11 9 9 7 5 4 3 3 3 3
16 12 6 6 6 5 6 7 9 11 13 13 14 15 18 20 21 20 20 19 18 17 15 12 10 9 7 6 5 4 1 2
17 12 8 7 6 6 6 7 9 12 14 14 15 16 18 20 21 22 21 21 20 19 17 16 14 11 9 8 7 5 4 3
17 12 9 7 6 6 6 7 11 13 15 16 17 18 19 22 24 26 25 24 25 24 22 21 15 14 12 11 11 9 7 5
13 11 8 8 6 7 8 9 13 14 16 19 21 23 24 25 28 30 30 29 30 30 28 24 24 19 15 15 14 13 13 11
13 11 8 8 7 10 11 12 17 20 22 22 22 22 24 27 30 33 35 34 38 37 33 28 23 23 12 16 17 20 19 15
8 3 5 9 11 12 12 14 15 18 19 24 26 27 28 26 25 27 29 29 30 36 34 28 22 22 18 15 7 11 12 15
6 7 9 11 12 12 13 13 14 14 21 25 28 28 25 27 28 26 26 26 28 31 33 33 32 25 27 18 6 10 11 10
12 17 16 17 16 16 17 12 13 16 19 21 29 30 29 29 30 29 27 25 26 29 29 31 30 31 18 23 15 10 8 10
16 15 17 19 19 20 17 15 14 17 21 27 31 32 29 28 26 25 25 24 24 23 24 24 26 28 26 16 13 8 4 8
14 13 15 18 19 17 16 17 20 23 31 34 33 32 31 27 23 20 18 15 11 6 4 5 1 3 3 1 9 9 7 5
16 16 16 18 17 17 21 24 28 31 33 29 28 26 22 20 14 8 5 9 13 13 13 13 14 13 11 9 6 4 1 2
15 15 14 18 20 19 19 23 28 29 26 29 28 23 15 7 4 4 5 5 4 5 7 7 10 9 9 9 6 6 3 3

GFSFLT2_925_spd_006.txt.gz
Wind_Speed
7 6 4 2 2 1 1 1 1 1 2 3 4 3 4 4 4 5 6 7 8 9 9 8 8 7 6 6 5 3 2 5
6 5 5 2 1 1 0 1 1 2 3 4 5 7 6 5 5 5 6 8 9 9 9 9 9 7 6 5 4 4 3 3
6 4 4 2 1 0 2 3 3 4 5 6 5 3 3 4 6 7 9 10 12 12 11 10 10 9 8 6 5 5 5 5
8 7 4 3 2 1 1 1 1 2 3 4 5 5 5 6 7 10 10 11 12 13 12 11 8 7 7 9 6 7 7 7
10 7 5 4 3 1 2 3 4 4 5 6 7 8 8 8 8 9 9 12 9 11 10 9 8 9 9 8 8 8 8 8
8 7 5 5 3 2 3 4 5 6 7 9 8 9 10 10 11 12 12 12 12 11 11 10 9 7 7 7 6 6 6 6
9 7 6 5 4 3 4 4 5 6 8 9 9 10 10 11 12 13 13 12 12 12 12 12 9 7 7 7 6 6 5 5
10 9 8 6 4 3 2 3 4 5 6 8 9 9 10 11 12 13 12 12 12 12 12 12 11 9 9 8 8 7 7 6
11 11 8 5 4 2 0 2 3 4 5 7 8 9 10 11 13 13 13 13 13 13 12 12 12 11 11 11 10 9 8 8
11 11 7 4 4 2 2 2 2 4 6 7 9 10 12 14 15 15 15 16 17 16 16 16 15 15 14 14 13 12 11 10
14 11 7 5 4 3 3 3 3 5 7 8 10 12 13 15 18 19 17 18 18 19 20 19 20 18 18 17 17 16 14 13
11 9 4 2 3 3 4 4 3 5 6 7 10 12 13 15 18 20 20 20 22 23 23 24 24 24 24 22 21 20 19 18
6 6 4 2 1 4 5 7 7 6 7 11 13 13 15 17 18 19 20 21 23 24 26 27 28 27 24 26 27 25 24 23
6 6 6 5 4 4 4 7 7 8 10 14 14 18 18 18 18 20 21 23 23 24 24 26 28 27 27 25 14 24 27 25
9 11 12 11 9 7 6 6 9 10 15 16 19 21 20 19 19 19 20 21 23 24 24 26 28 28 28 21 11 15 18 25
13 11 10 9 10 8 9 9 10 12 13 15 20 19 20 20 20 19 19 19 21 22 23 25 26 29 28 30 35 31 15 13
10 8 9 8 7 9 10 11 11 12 17 20 21 21 20 20 19 18 17 16 17 17 17 17 20 24 25 25 24 27 29 16
7 7 8 10 10 10 10 12 15 18 21 24 23 26 24 22 19 15 11 10 10 9 7 8 8 7 8 9 10 7 11 12
6 8 9 12 12 9 9 12 17 20 23 25 28 26 24 21 15 11 9 6 5 4 4 4 4 5 6 6 9 10 11 11
7 7 9 10 8 11 13 15 18 21 23 25 26 24 20 13 9 9 9 8 8 8 7 11 10 8 6 4 3 4 3 3

GFSFLT2_925_spd_009.txt.gz
Wind_Speed
9 7 4 5 5 4 4 3 3 4 4 5 5 6 6 5 6 7 8 9 10 11 10 9 9 8 8 8 8 7 7 7
8 7 6 4 4 5 5 4 4 4 6 7 8 6 11 9 7 10 10 10 11 11 11 10 9 8 8 7 6 3 7 8
6 6 5 4 5 6 5 7 7 7 6 10 6 4 6 6 7 10 11 12 13 13 14 14 10 6 8 11 7 6 6 8
8 5 4 3 3 2 2 2 3 3 5 5 6 7 6 9 6 14 11 14 15 10 14 14 11 11 12 9 9 8 9 7
9 6 3 1 4 3 2 3 3 3 4 7 8 8 7 9 10 9 11 13 11 13 12 11 11 11 10 11 11 11 11 10
8 6 3 1 0 1 2 2 3 4 6 6 8 9 9 10 11 13 13 13 13 13 13 12 12 11 10 10 9 9 10 9
9 7 5 2 0 1 2 2 2 3 4 5 6 7 9 10 11 12 12 13 13 14 14 14 13 12 11 12 11 11 10 10
10 9 6 4 3 2 1 1 2 3 4 5 5 6 8 9 11 12 13 13 13 15 15 16 15 14 14 13 13 13 12 12
12 9 8 5 5 4 1 1 2 3 3 3 4 5 8 10 13 14 15 16 17 17 17 18 17 17 18 16 16 16 15 14
9 10 10 7 6 5 2 1 3 4 3 5 5 6 8 11 14 15 16 17 19 20 20 21 21 21 20 20 20 19 18 17
10 11 11 8 7 5 3 3 5 5 5 6 5 7 8 10 13 17 18 20 22 22 23 22 23 24 25 25 24 23 22 22
11 11 8 6 5 5 6 5 5 6 6 4 6 7 9 12 14 16 18 20 22 22 22 25 26 27 29 30 28 27 25 25
7 10 4 4 5 5 6 8 8 7 7 7 10 10 12 13 15 15 17 19 21 23 25 25 25 25 26 26 28 31 31 29
8 7 3 1 1 4 4 5 6 8 7 12 12 13 15 16 15 17 18 20 22 23 23 25 25 24 24 24 14 23 29 32
9 9 8 9 5 5 8 8 9 13 16 17 17 20 20 19 18 19 20 20 22 22 23 24 25 26 25 23 14 14 14 27
9 8 6 8 10 8 10 10 13 13 15 18 20 20 20 21 21 20 19 21 21 22 21 22 24 26 25 27 30 30 15 15
6 5 6 6 5 6 8 12 17 22 21 17 19 19 20 21 22 22 22 20 18 18 18 17 18 21 21 21 22 23 21 7
4 5 5 5 6 8 13 13 11 16 17 19 18 21 22 22 23 20 19 18 15 16 15 15 9 14 14 13 11 8 13 9
6 10 12 10 13 12 12 13 15 16 19 19 23 24 23 22 19 17 16 16 17 14 11 9 8 8 12 14 9 8 8 8
11 13 14 14 13 16 16 15 16 17 18 21 21 21 22 20 18 18 19 15 13 11 9 9 10 11 10 13 11 11 8 7

GFSFLT2_925_spd_012.txt.gz
Wind_Speed
13 12 13 11 10 9 8 7 7 8 8 8 7 9 10 12 7 11 11 11 12 12 13 12 12 11 11 13 13 10 10 7
14 9 7 8 10 10 9 9 9 9 11 12 8 6 8 9 9 13 14 13 15 13 15 16 11 7 9 12 15 8 9 14
13 11 9 8 8 9 9 7 9 8 7 10 7 8 6 6 10 10 11 15 17 11 13 16 11 11 12 10 12 12 12 10
10 10 7 5 7 4 5 5 7 7 5 6 9 7 3 7 8 9 9 15 13 10 15 14 10 14 13 12 14 14 13 11
16 8 5 1 7 2 7 8 7 3 8 5 5 5 6 8 11 11 15 14 10 16 14 15 14 15 13 14 15 14 14 15
18 12 6 3 2 6 7 9 6 6 6 4 4 5 5 7 7 9 11 12 13 11 12 14 14 12 14 13 13 14 15 18
19 17 9 5 4 5 4 4 4 5 4 3 3 4 4 6 7 9 10 12 12 12 15 15 15 14 15 11 14 15 16 17
23 20 15 8 4 5 4 4 2 4 3 5 3 3 5 6 8 10 12 13 14 16 18 18 17 16 15 16 16 17 19 18
22 23 20 11 7 6 3 6 2 0 0 1 1 2 5 7 8 10 13 15 16 18 19 19 20 20 20 20 18 21 22 20
2 25 18 12 8 8 5 4 1 5 3 1 3 1 4 7 10 13 15 18 18 19 21 21 21 22 24 23 23 24 24 23
15 16 14 12 10 7 5 3 3 6 7 3 7 8 6 10 14 17 20 20 19 22 22 21 20 22 25 26 27 25 27 27
8 12 7 10 12 5 4 6 6 2 5 4 7 8 9 14 16 17 19 20 21 21 23 25 25 26 26 26 28 30 32 32
22 16 8 5 2 0 8 11 11 8 9 7 10 9 14 17 18 17 19 20 21 23 24 25 25 24 26 24 26 28 30 30
17 14 11 11 8 8 7 7 5 7 7 15 14 16 20 20 21 18 15 18 21 22 23 25 24 22 22 22 11 21 25 26
15 14 12 10 11 8 8 8 8 11 15 15 15 19 21 18 19 20 20 17 19 23 23 22 19 21 20 17 9 11 16 23
11 9 9 8 6 3 4 5 7 10 11 18 23 16 13 19 21 21 21 19 21 21 18 21 19 18 17 15 20 21 4 9
6 3 3 2 3 4 6 10 13 16 13 12 16 15 20 21 20 21 20 24 22 21 17 16 11 10 13 15 19 24 20 5
3 5 6 4 3 6 11 10 10 15 16 15 17 19 19 19 21 21 20 19 19 15 14 12 11 11 10 11 11 6 12 8
6 12 17 15 10 5 10 12 13 14 16 16 19 19 18 22 22 21 19 18 15 10 9 10 10 11 12 15 15 11 10 13
11 8 14 17 15 11 9 11 12 12 13 15 15 16 17 19 20 20 13 9 10 9 10 11 14 18 17 15 18 16 13 12

GFSFLT2_925_spd_015.txt.gz
Wind_Speed
20 18 17 15 14 13 14 13 14 14 12 11 12 11 10 11 11 12 11 12 13 12 16 17 13 12 13 14 15 11 11 12
18 14 15 16 15 15 16 15 16 16 13 10 9 7 7 7 9 9 11 14 12 13 15 16 14 14 17 17 15 15 14 8
17 15 13 15 14 13 14 14 13 12 9 5 7 5 4 7 7 7 10 14 10 13 14 14 12 12 18 16 13 16 14 8
19 15 11 10 9 8 10 11 11 11 10 10 8 4 3 3 5 6 12 11 8 14 12 14 10 15 16 17 14 15 14 13
21 17 11 8 6 6 7 10 10 10 9 9 5 5 8 5 6 9 9 11 12 13 11 13 16 15 17 18 14 13 13 13
22 17 17 10 9 13 18 13 12 8 10 6 5 4 1 3 3 4 5 9 10 7 10 16 16 15 16 18 15 12 15 14
23 19 17 13 9 9 11 10 6 8 5 3 5 4 2 2 0 3 6 9 12 13 16 18 19 19 17 17 16 19 18 16
25 18 13 14 11 8 9 8 8 8 5 1 3 2 1 3 5 8 10 12 14 17 20 20 21 21 23 22 22 20 21 21
28 19 8 5 13 11 9 6 7 6 4 3 2 1 4 6 10 12 14 16 19 21 21 21 23 22 23 24 24 24 25 26
30 27 23 12 8 10 13 9 4 3 4 5 7 5 3 5 11 15 17 19 21 21 22 22 20 20 24 26 26 27 29 28
25 17 20 15 19 12 9 4 1 1 7 9 7 4 4 8 16 20 19 19 19 19 21 24 27 28 28 25 25 26 27 30
27 22 15 20 16 9 6 7 9 11 9 10 7 6 8 12 19 20 17 20 21 23 25 27 26 25 25 27 26 25 24 25
24 20 18 14 10 9 11 10 9 13 12 10 9 10 12 16 21 13 13 14 19 22 22 25 28 27 27 24 24 25 22 22
21 20 19 17 16 16 12 10 8 6 9 10 13 14 17 13 14 16 17 17 18 21 24 26 19 16 17 18 5 17 17 21
19 17 13 16 12 7 6 8 9 13 16 17 17 13 12 13 15 16 18 18 20 23 23 18 21 18 10 5 4 3 14 12
15 11 9 6 5 9 8 8 10 13 12 10 9 10 14 17 19 22 24 25 24 19 15 12 13 10 9 7 9 4 2 6
7 5 4 6 3 3 1 3 4 6 8 7 11 16 20 20 23 22 21 18 16 17 16 14 11 10 10 10 9 14 11 2
3 3 11 7 3 1 2 4 7 7 7 10 15 18 17 20 18 18 18 15 15 13 10 10 10 11 12 14 12 6 8 7
1 3 5 7 6 5 5 6 6 8 10 13 16 14 15 13 17 20 18 16 15 14 12 11 12 15 21 20 19 19 19 18
7 5 7 10 9 9 9 8 7 7 9 12 11 7 9 18 21 16 16 19 20 18 18 20 22 23 22 23 23 24 22 20

GFSFLT2_925_spd_021.txt.gz
Wind_Speed
20 17 16 15 15 15 14 13 13 13 13 12 12 12 12 12 12 12 12 11 14 14 15 15 15 16 17 20 17 14 14 13
20 18 17 17 16 15 15 15 14 13 12 10 9 9 8 8 8 8 8 8 9 9 10 11 13 15 15 18 19 15 13 13
20 19 18 17 16 16 16 14 14 11 9 7 6 4 3 3 4 5 6 6 5 6 6 9 11 13 13 15 17 16 16 13
23 21 21 21 19 18 15 13 11 8 6 5 4 2 2 1 2 3 4 6 7 7 6 8 13 13 13 12 13 15 16 16
25 22 21 21 20 19 17 15 13 10 6 4 3 3 3 2 2 4 6 8 9 7 10 14 17 16 15 14 14 13 14 15
26 26 23 20 19 18 16 15 14 12 9 6 4 3 1 2 3 5 7 10 11 12 14 16 17 17 17 17 16 14 15 17
30 27 24 21 18 19 17 17 15 13 11 6 5 5 4 2 1 3 6 9 12 15 17 18 19 18 17 16 17 16 13 13
31 27 21 19 18 20 17 15 16 14 13 8 7 6 4 2 1 2 6 10 12 13 15 17 18 20 21 20 20 19 18 16
27 23 17 17 15 14 15 13 13 14 11 8 6 5 4 2 2 5 10 12 12 14 15 15 19 20 21 22 20 21 21 21
22 18 14 13 11 9 9 9 11 12 7 6 5 7 5 3 7 10 12 14 15 17 18 21 23 24 26 26 25 23 21 20
21 17 6 4 2 9 6 6 5 7 11 12 9 5 2 4 9 12 13 14 16 18 20 21 23 26 27 27 26 25 24 20
18 9 6 3 0 11 16 17 18 16 13 9 4 3 5 10 11 12 13 15 18 22 24 25 26 22 21 18 22 22 17 13
10 7 6 9 15 20 20 19 15 11 5 3 3 6 8 9 10 11 12 16 18 20 21 21 22 21 15 20 17 4 25 12
8 9 11 14 15 13 10 9 6 3 2 2 3 3 4 6 9 12 14 16 16 17 18 19 15 18 11 13 4 12 7 25
18 17 14 10 9 9 9 9 8 5 5 4 3 5 9 13 17 15 13 13 14 14 15 15 14 16 14 4 3 3 15 5
14 11 9 7 5 4 5 7 9 6 7 4 4 5 8 13 14 13 12 13 16 11 9 9 9 9 8 8 12 15 3 7
8 6 4 2 3 4 5 4 3 7 6 4 3 8 17 21 11 9 12 15 10 9 9 6 6 6 10 14 16 15 20 8
9 8 6 4 4 3 2 3 5 2 2 8 13 16 19 9 7 10 13 11 12 12 9 9 10 12 13 13 11 9 12 13
8 7 9 7 5 5 4 2 2 7 10 14 18 18 14 10 8 9 9 8 7 8 10 11 10 11 13 15 13 15 15 16
10 9 6 4 4 5 5 6 7 10 13 15 17 16 13 6 8 9 9 9 10 8 9 10 11 11 13 14 14 11 11 13

GFSFLT2_925_spd_027.txt.gz
Wind_Speed
18 17 16 15 15 15 14 14 15 16 16 16 17 15 15 14 14 12 11 12 12 13 15 15 15 15 16 16 16 16 16 17
18 16 15 14 15 14 14 14 16 15 15 15 14 13 11 11 10 9 8 8 8 9 11 12 13 13 14 15 16 15 14 13
18 17 16 15 15 14 13 13 14 13 13 12 11 10 8 8 7 6 6 6 6 8 9 10 12 12 12 13 15 16 16 13
17 17 16 15 15 14 13 13 13 11 9 9 7 6 5 4 4 4 6 7 8 8 8 10 12 13 13 13 13 13 12 13
18 16 16 14 13 13 12 11 10 8 7 6 4 3 3 3 5 6 8 7 7 7 9 12 14 14 14 14 13 13 12 12
16 14 13 12 11 11 10 9 7 5 4 4 3 4 6 8 7 7 6 7 6 8 11 13 14 15 15 15 14 13 12 13
15 13 11 10 6 5 5 5 5 5 5 3 4 6 7 8 8 7 6 5 6 8 11 13 14 14 14 14 14 14 14 13
13 12 9 7 4 1 4 7 8 7 4 3 3 5 8 8 7 6 5 7 9 10 11 12 13 15 15 16 15 13 13 14
14 11 5 5 2 4 4 9 11 9 3 3 6 8 7 6 5 5 5 5 6 8 11 13 13 15 14 14 14 12 11 10
14 16 16 18 18 10 10 15 8 5 7 6 7 7 6 3 1 1 3 5 9 12 14 14 13 13 14 15 14 12 9 3
20 21 20 14 6 8 14 7 3 8 10 9 8 6 5 4 3 5 6 10 12 14 12 12 11 11 13 12 14 12 5 3
25 21 18 9 14 3 9 9 12 12 9 5 8 5 2 3 6 9 12 15 14 12 11 11 10 11 13 10 14 9 3 4
23 22 19 7 11 16 15 15 13 9 7 8 4 2 3 9 12 13 15 13 13 14 12 12 12 14 10 14 10 5 4 7
18 14 11 15 19 18 14 12 8 8 8 6 4 4 8 10 16 15 13 10 13 15 12 9 9 10 10 11 4 7 5 14
15 15 17 17 17 14 8 8 8 7 5 2 4 5 7 11 14 9 8 9 9 9 8 8 10 9 8 6 4 4 17 11
18 21 18 19 12 8 7 2 2 2 1 2 3 8 9 12 10 9 7 8 8 7 7 7 7 8 9 6 9 13 7 8
15 16 14 11 6 4 2 4 6 7 5 4 5 9 12 14 12 10 9 9 9 8 6 5 6 7 7 8 9 11 12 13
15 11 10 7 6 7 10 10 8 6 6 7 9 13 15 16 15 13 10 8 7 6 9 6 6 6 7 8 11 12 13 14
13 11 12 11 10 9 9 7 6 5 6 8 11 12 15 18 16 14 13 11 10 11 9 8 8 8 8 9 9 10 10 12
12 10 10 8 8 7 5 3 5 7 11 14 15 18 20 20 16 14 15 15 10 12 9 10 9 8 9 10 10 10 8 9

GFSFLT2_925_spd_030.txt.gz
Wind_Speed
16 16 14 13 12 13 13 13 13 14 15 15 15 15 14 12 11 10 10 11 11 12 13 13 14 15 16 17 17 17 14 13
16 15 14 12 11 12 12 13 13 13 13 13 12 11 10 9 9 6 6 7 7 8 9 11 11 12 13 14 15 14 14 12
15 14 12 11 11 10 11 12 12 11 9 10 8 5 5 5 4 5 5 5 6 6 7 8 12 13 14 16 15 15 14 13
13 12 11 11 10 10 9 8 7 7 6 5 4 3 3 3 3 3 5 5 5 5 7 10 11 11 14 16 15 14 13 12
12 11 11 10 9 9 8 7 6 4 3 3 2 2 2 2 3 2 3 3 2 5 6 8 11 12 13 14 14 14 14 13
12 11 11 10 9 9 8 5 4 2 2 1 3 3 3 3 3 2 2 2 3 5 6 8 10 12 13 14 15 15 15 15
12 12 12 10 10 7 6 4 2 2 2 2 1 4 4 4 3 2 2 2 3 5 7 9 11 12 14 15 16 15 15 15
12 11 11 10 10 8 5 3 3 6 8 2 4 3 5 5 4 3 1 1 3 6 9 11 13 15 17 17 16 16 15 14
14 12 10 9 9 8 6 3 4 8 9 7 9 8 6 4 2 1 2 4 6 8 10 12 15 18 19 19 19 17 15 13
15 14 14 14 12 11 10 10 12 10 5 6 7 8 7 5 4 3 6 7 8 9 11 15 18 17 18 19 19 18 15 12
20 18 19 16 10 4 16 12 7 5 7 10 11 10 5 4 5 5 6 6 8 11 13 14 17 17 18 20 18 19 17 13
23 22 24 18 11 10 11 6 6 7 7 8 6 4 4 5 5 4 6 7 9 11 13 14 16 16 19 20 17 19 17 11
21 22 22 16 10 10 9 8 9 9 4 5 5 5 5 4 3 5 6 7 8 9 12 15 16 16 20 19 19 15 9 12
19 19 13 9 10 10 8 9 7 6 6 6 5 4 3 3 5 5 5 6 7 9 11 14 16 16 15 21 9 14 20 6
17 14 13 12 11 10 8 8 7 6 4 3 3 3 2 3 3 4 5 8 10 9 10 12 16 17 12 12 10 9 18 21
15 15 15 12 10 7 6 3 4 2 3 3 2 1 2 4 6 6 8 10 10 10 10 12 15 16 15 13 13 15 10 12
16 15 13 11 6 5 5 4 6 6 4 2 3 4 7 9 10 10 11 12 12 9 9 17 16 14 15 13 13 15 16 15
14 15 11 9 8 8 8 8 5 2 1 5 7 10 12 13 13 13 14 14 13 11 14 17 14 13 13 12 14 14 15 16
12 13 13 12 11 9 7 5 3 1 4 7 11 13 15 17 17 16 16 16 14 13 16 17 14 14 12 14 13 15 15 16
13 13 13 10 9 8 7 3 1 3 5 8 10 13 15 15 15 15 16 16 17 17 18 17 16 13 13 14 15 15 16 17

GFSFLT2_925_spd_033.txt.gz
Wind_Speed
22 18 17 15 15 15 15 15 14 14 14 14 14 12 11 10 9 9 8 8 9 10 11 12 14 15 17 18 15 16 18 12
21 18 15 13 13 14 15 14 14 14 14 13 11 9 8 8 7 5 5 5 5 6 8 10 11 14 17 18 17 18 17 14
21 18 15 15 13 14 14 14 13 12 11 11 8 5 5 5 2 4 4 4 4 5 7 7 11 8 16 18 17 17 16 16
16 15 13 13 13 14 12 11 10 10 9 5 2 2 1 2 2 3 3 3 5 7 9 10 12 12 14 15 15 16 16 15
15 14 14 13 14 12 12 10 8 7 4 1 2 1 2 2 1 2 1 4 4 6 8 9 11 13 14 14 16 17 16 16
15 14 14 12 12 11 10 11 7 5 3 2 1 4 0 3 3 3 3 5 6 7 8 9 11 13 15 16 17 18 18 18
16 15 15 14 12 11 10 9 7 5 4 2 2 2 2 4 3 4 4 5 7 8 9 11 13 14 17 18 19 19 19 17
17 16 15 14 14 11 9 7 5 3 1 4 4 5 4 5 4 4 4 4 5 7 10 12 14 17 19 21 20 21 20 18
18 17 16 15 15 13 12 9 6 5 5 6 3 4 7 3 2 1 4 5 7 8 11 13 16 19 20 20 22 22 19 18
18 17 17 18 15 13 10 5 10 6 4 3 6 9 9 8 5 2 2 4 6 9 12 14 16 19 21 21 22 21 19 19
18 19 19 18 15 8 3 11 11 5 5 8 9 9 7 3 3 0 2 6 8 9 12 15 18 21 21 21 24 21 20 21
19 20 19 19 17 9 10 4 5 6 6 6 6 4 4 3 1 2 5 7 8 10 13 16 17 21 21 21 23 23 23 16
19 20 18 16 9 7 7 7 8 6 6 5 5 5 4 2 2 4 6 8 8 11 14 17 18 19 22 23 21 25 22 15
19 17 16 13 8 10 9 10 9 7 6 7 6 5 3 0 3 5 6 10 12 13 15 16 18 18 21 22 11 19 20 17
19 17 17 13 13 12 11 9 7 7 7 5 5 3 2 2 4 7 9 12 14 14 14 15 19 19 17 19 12 11 20 22
17 19 17 14 14 13 12 11 8 6 4 4 4 3 3 5 7 9 11 13 14 15 15 15 18 21 21 19 19 21 11 13
17 15 16 15 12 10 8 5 2 3 3 3 4 6 7 8 10 11 14 16 17 17 17 17 19 21 21 20 19 18 20 17
17 17 15 13 11 8 6 7 4 4 4 5 6 7 10 11 12 15 16 19 19 18 16 19 19 19 19 17 16 16 16 17
17 16 14 12 11 10 9 8 5 4 4 5 6 9 10 12 14 17 17 18 19 19 15 18 23 19 17 17 16 15 15 18
17 15 14 13 12 10 8 6 4 2 3 5 6 8 10 12 13 15 17 19 20 21 19 18 21 17 18 15 17 16 16 16

GFSFLT2_925_spd_039.txt.gz
Wind_Speed
26 21 19 22 24 25 25 23 22 22 22 21 21 20 18 16 15 14 13 14 14 14 14 16 15 23 18 16 16 19 19 13
28 18 24 26 24 23 24 23 22 22 21 20 18 17 15 12 11 10 10 11 12 11 12 17 14 10 17 16 17 16 23 14
22 19 23 23 23 23 23 22 23 22 21 19 18 14 13 11 9 8 8 10 13 12 10 10 12 14 15 18 18 15 17 20
23 22 22 24 24 23 23 23 22 21 18 15 14 12 10 7 8 9 10 10 10 9 10 10 12 12 13 14 15 15 15 15
23 25 24 23 24 25 25 24 21 17 14 13 12 13 11 6 9 9 8 9 7 10 10 10 12 13 14 14 14 13 14 18
28 28 26 26 27 27 25 23 20 16 13 10 10 10 7 6 4 5 9 10 12 7 8 10 10 9 12 14 15 16 14 16
35 30 27 26 24 22 18 19 20 16 13 9 8 13 16 15 13 12 10 7 7 5 7 8 8 11 12 15 17 14 13 13
28 24 23 24 22 28 24 19 17 16 10 6 9 12 8 7 7 7 7 5 5 5 6 8 9 11 13 14 16 12 14 16
29 28 21 24 27 25 22 20 19 14 7 6 10 9 9 10 10 7 4 5 5 4 4 5 10 11 11 13 11 16 19 16
29 26 23 26 23 20 20 16 12 10 7 8 9 9 10 10 5 5 8 7 5 3 4 7 8 10 12 13 16 18 15 22
28 24 27 26 24 22 16 12 9 11 12 11 13 12 9 8 8 7 7 5 1 2 6 6 9 11 11 13 17 14 18 18
30 30 29 25 24 19 13 10 11 12 12 13 14 13 12 7 4 4 5 2 2 6 4 5 9 10 12 18 10 14 13 16
35 34 29 28 24 19 16 16 14 15 13 15 12 11 11 8 7 6 6 3 4 6 5 10 9 9 11 15 14 4 15 13
38 37 33 28 22 16 13 15 14 16 14 13 11 9 10 8 7 5 3 1 3 6 9 11 9 7 11 10 4 11 8 19
36 33 27 25 20 17 16 15 16 17 15 15 12 12 10 5 2 4 3 4 6 8 10 10 7 12 8 5 3 2 6 2
35 30 23 23 24 24 25 23 23 22 18 18 17 14 10 6 5 4 5 4 6 7 9 14 16 13 7 7 9 12 2 4
30 25 22 23 22 27 25 25 23 23 20 21 17 13 8 7 6 4 4 2 5 8 10 12 12 9 10 10 10 11 13 3
26 26 23 23 22 26 24 21 23 26 25 20 16 10 9 8 5 2 2 6 9 12 14 16 16 18 17 11 8 6 5 5
25 25 24 23 21 21 19 26 23 22 22 19 18 14 10 5 3 6 8 9 11 13 14 15 16 17 18 13 9 12 15 13
26 26 29 26 21 18 17 18 20 19 18 15 11 7 4 3 3 5 7 10 12 15 18 17 17 11 5 8 10 14 10 9

GFSFLT2_925_spd_045.txt.gz
Wind_Speed
30 28 23 24 24 27 25 23 22 24 27 28 28 28 27 26 25 24 23 20 20 17 17 18 20 21 19 18 17 17 18 17
31 24 21 21 21 22 22 21 22 24 26 26 25 24 22 21 22 21 19 18 18 17 16 16 16 17 17 15 15 15 15 15
29 27 21 19 19 18 17 20 23 25 24 23 22 20 19 18 19 19 18 16 16 14 14 14 15 16 15 14 13 13 14 13
21 27 28 21 16 20 21 23 23 23 22 20 18 18 17 17 18 16 16 15 14 13 12 11 11 14 12 12 13 13 14 14
26 23 21 20 20 21 23 23 22 20 19 19 17 16 17 17 16 15 13 11 14 12 11 12 11 9 9 12 13 13 13 13
31 25 22 22 23 24 23 23 21 19 18 16 15 14 15 15 14 13 12 11 14 11 11 10 9 9 10 11 11 11 12 12
25 26 25 25 23 23 22 22 20 18 17 14 11 14 13 15 14 11 13 14 12 11 9 8 9 9 11 10 11 11 13 13
27 27 28 25 26 25 24 21 18 14 14 13 15 14 15 16 16 16 17 14 11 9 7 7 8 9 10 10 11 12 13 13
29 25 28 27 26 25 23 20 17 16 14 13 14 16 19 19 19 18 16 12 9 8 7 7 7 9 10 9 10 9 11 14
30 23 29 28 27 26 25 20 20 18 15 16 16 17 20 20 20 17 15 12 9 6 4 6 7 10 8 8 8 7 8 12
26 24 29 29 29 28 23 22 21 18 17 15 15 17 18 18 17 15 13 11 7 3 3 4 6 5 3 5 6 6 6 8
28 30 30 30 30 26 25 24 22 18 15 13 15 18 18 17 16 14 13 10 6 5 2 3 3 3 3 3 3 2 6 8
33 34 34 35 32 31 27 24 20 17 15 15 17 18 17 17 15 15 13 10 7 2 1 1 2 1 1 5 2 7 5 6
35 36 36 36 36 33 27 25 21 17 16 16 18 18 19 17 15 14 12 7 4 4 2 0 1 2 1 3 2 4 9 7
41 39 40 39 36 30 20 22 15 16 17 20 21 19 18 17 13 11 8 5 5 5 4 4 2 2 3 3 1 3 2 8
44 44 42 41 37 34 28 27 18 18 22 23 20 18 16 14 11 9 8 7 6 3 1 3 3 3 3 7 11 7 3 3
34 35 39 40 37 33 26 23 20 17 21 22 20 18 16 13 10 8 8 7 6 3 2 4 4 5 6 7 10 11 11 8
34 37 40 38 35 33 29 25 24 20 21 21 20 19 15 13 13 12 11 5 3 6 7 7 7 8 8 8 10 8 6 9
34 34 34 38 36 35 33 30 29 23 24 26 24 22 18 17 15 10 7 4 7 7 7 9 7 7 6 6 7 10 12 12
31 30 29 35 37 33 32 29 29 28 26 29 30 26 23 20 14 11 4 5 6 11 18 11 5 6 8 11 12 12 13 13

GFSFLT2_925_spd_048.txt.gz
Wind_Speed
22 38 29 27 29 28 27 25 24 26 27 26 28 28 28 27 25 23 22 23 24 24 23 22 21 20 19 18 16 16 15 15
37 36 19 24 23 25 24 25 22 25 26 25 26 25 25 23 22 21 22 21 21 20 19 20 19 17 17 16 14 14 13 12
38 35 23 19 20 19 20 22 23 24 24 23 23 22 22 20 20 19 18 18 18 17 17 17 18 17 15 12 12 12 12 11
31 29 31 20 16 15 18 21 22 23 23 22 21 20 19 19 18 17 16 16 15 14 15 14 14 14 15 12 10 9 10 9
29 28 28 25 15 18 20 21 22 22 21 20 19 19 19 18 18 15 14 13 13 13 12 11 12 12 12 10 10 9 9 8
41 36 42 26 12 15 17 20 21 21 19 18 18 17 18 16 15 15 14 13 14 12 11 11 10 10 11 11 10 10 11 11
31 33 29 24 19 17 17 21 21 21 20 18 15 17 17 16 14 13 14 14 13 12 9 10 10 9 9 10 11 12 14 14
32 30 26 23 23 23 22 22 22 21 20 18 15 15 16 16 15 15 16 14 11 9 9 8 8 8 9 10 10 11 11 12
30 27 24 23 23 22 23 23 22 19 19 19 16 17 17 18 16 17 16 14 11 10 9 6 6 7 8 8 8 6 7 10
26 24 23 23 22 23 24 23 20 18 17 16 17 17 18 18 19 18 17 15 12 7 5 4 5 6 7 5 7 4 9 10
25 23 23 24 24 23 24 24 20 21 17 15 15 15 17 20 20 19 17 15 11 7 5 2 4 3 2 2 1 5 8 8
24 24 21 25 25 24 23 23 22 21 18 17 16 17 20 20 20 18 17 14 12 9 3 2 1 3 5 3 3 4 7 5
28 25 24 26 27 25 24 25 24 20 17 16 16 18 20 20 19 17 17 14 10 6 5 4 5 4 3 5 2 7 6 2
29 29 29 29 29 30 27 28 23 20 17 16 17 18 20 19 18 19 17 13 9 10 7 4 3 5 2 1 3 3 8 10
36 34 34 34 32 31 23 23 18 19 19 18 19 19 19 19 19 17 15 12 12 9 4 3 3 4 4 2 1 3 2 6
35 33 34 34 34 34 33 31 22 25 23 21 21 20 20 19 17 17 16 13 9 6 3 1 2 2 4 5 8 6 3 3
35 34 34 33 36 37 36 28 27 18 20 21 20 20 19 19 19 18 15 11 10 6 5 4 6 4 5 5 7 10 10 6
33 34 33 35 35 36 35 33 25 21 19 21 23 23 21 21 21 18 15 14 10 5 3 6 6 7 6 7 10 8 7 9
32 34 33 38 36 36 38 37 30 26 23 27 28 26 25 22 19 19 18 14 6 4 4 7 11 7 4 5 7 10 12 13
32 33 31 33 38 40 37 38 32 29 26 28 30 30 26 24 23 20 16 15 8 6 11 12 8 6 6 8 11 11 13 14

GFSFLT2_925_spd_054.txt.gz
Wind_Speed
42 38 32 31 28 30 30 28 36 36 35 37 34 33 32 31 30 29 28 26 24 23 21 19 16 16 14 13 13 13 11 12
36 31 32 30 32 30 33 27 31 34 34 34 32 31 30 30 29 27 26 25 24 23 21 18 16 14 13 13 14 13 10 10
40 39 38 32 31 26 28 29 26 29 31 31 29 23 22 22 21 24 23 24 23 20 19 16 14 13 12 12 12 8 9 8
37 37 41 29 29 28 20 23 22 24 28 27 21 20 18 18 22 22 21 20 20 19 16 13 11 9 8 11 8 8 7 7
27 33 26 30 29 31 25 17 17 20 27 18 18 18 19 18 20 18 17 18 16 14 10 8 9 8 9 7 7 7 6 6
32 31 36 32 25 36 33 20 20 22 21 16 17 17 16 16 16 15 15 12 12 10 9 10 9 8 8 6 8 7 7 4
24 26 27 26 23 30 28 21 22 18 18 16 15 13 13 14 14 15 13 13 11 10 9 8 7 7 6 7 8 8 6 4
33 28 28 31 31 27 13 14 17 17 16 14 14 13 14 13 13 12 12 12 10 9 8 7 5 4 6 7 7 6 5 4
28 29 26 23 19 16 16 18 18 17 14 13 13 13 13 13 13 13 12 11 11 10 8 7 5 4 5 5 5 5 3 3
30 30 25 20 13 15 16 15 15 16 15 16 17 12 13 13 12 13 12 13 13 14 9 5 4 3 3 2 2 2 2 1
29 29 20 15 12 11 12 14 17 15 13 13 15 14 14 14 14 14 15 17 16 13 7 6 4 3 2 0 1 1 3 3
28 23 19 16 14 14 13 14 15 15 15 17 18 17 18 18 15 16 17 15 14 10 9 7 5 4 2 2 3 4 6 6
27 25 22 19 18 17 16 16 17 17 15 13 14 14 16 17 16 16 18 15 14 16 11 9 6 5 3 4 7 8 9 9
28 27 24 22 19 18 18 18 18 18 16 18 18 15 15 17 17 19 19 16 16 16 12 8 6 5 2 4 4 4 8 12
30 28 25 24 21 19 18 15 14 17 17 16 18 16 17 17 18 18 18 18 20 15 13 11 9 7 5 4 3 6 11 10
31 28 26 24 24 21 21 20 19 18 17 15 16 19 18 18 18 18 18 19 17 16 14 13 10 7 6 9 10 10 5 6
30 28 27 26 25 25 23 23 20 18 16 16 18 18 18 18 18 21 21 18 18 17 15 14 13 11 10 8 10 11 10 9
30 29 29 28 27 27 27 25 23 20 20 18 17 17 18 19 21 25 23 19 19 18 18 18 13 10 13 12 11 10 9 10
28 29 29 28 28 28 28 27 25 24 21 21 20 19 21 25 25 21 21 19 21 24 19 13 12 12 11 11 10 10 8 10
28 28 29 28 28 28 25 24 23 23 20 18 19 20 23 19 24 19 21 22 22 13 10 11 10 11 11 12 10 9 9 12

GFSFLT2_925_spd_057.txt.gz
Wind_Speed
34 30 28 26 25 26 27 28 30 32 35 33 31 31 30 29 29 27 25 23 21 19 17 16 15 14 15 17 16 15 13 12
35 31 24 24 26 27 25 21 26 31 33 33 30 29 29 28 28 27 24 22 21 19 16 15 14 14 15 15 12 12 9 11
33 37 35 27 27 29 26 23 25 28 30 29 27 28 27 22 23 25 24 23 20 18 15 13 12 14 14 14 12 8 8 9
33 33 29 30 31 32 30 27 25 23 26 23 24 22 19 18 22 22 22 21 18 16 14 11 5 6 6 10 8 7 8 7
30 31 37 32 33 31 27 27 22 21 19 18 21 17 17 17 18 17 18 17 14 11 7 5 6 5 7 7 6 6 6 5
27 26 26 28 31 30 29 22 21 23 19 14 16 15 16 17 16 14 14 11 11 7 6 6 7 7 6 7 7 5 4 4
24 24 25 32 33 30 31 14 20 23 17 16 17 15 16 18 16 15 13 11 10 8 7 6 6 5 6 6 4 5 5 4
25 26 26 29 31 31 26 22 23 20 16 15 17 16 15 14 13 13 12 12 11 9 8 6 4 4 4 4 4 5 3 2
29 26 25 27 27 25 24 17 17 18 15 14 14 14 14 13 13 13 12 12 11 10 8 6 5 4 3 3 2 2 2 1
27 24 24 25 27 30 18 18 18 15 17 15 16 15 14 13 13 12 13 13 12 11 10 8 6 4 3 2 1 2 3 1
31 28 27 27 24 23 16 14 14 18 16 14 17 16 14 13 13 12 14 14 12 12 10 8 7 6 5 4 2 3 3 3
31 30 33 27 18 16 14 14 17 16 17 18 17 16 15 14 13 14 15 14 13 13 11 9 8 7 5 6 6 5 4 6
32 32 30 24 21 21 19 17 16 17 19 18 16 16 16 18 17 17 16 16 15 14 12 12 9 7 7 11 11 12 9 8
31 30 27 24 21 20 20 19 19 19 20 19 15 13 14 14 18 18 17 17 17 15 17 15 12 10 9 5 5 5 10 13
31 29 27 25 22 21 19 18 17 20 21 19 16 18 20 15 18 16 17 19 18 18 19 19 15 11 10 6 2 3 13 7
30 28 27 26 24 21 21 21 19 20 20 19 17 24 20 24 25 22 20 21 19 24 22 19 16 14 11 8 5 5 4 5
31 29 28 26 25 24 21 22 20 19 20 20 19 17 22 25 27 23 23 21 23 24 22 19 15 11 12 5 7 10 14 12
31 32 31 28 27 27 27 23 23 20 19 15 16 18 18 20 21 22 23 24 25 23 20 16 15 13 8 9 9 11 13 13
32 32 31 31 30 30 29 27 24 23 21 20 18 21 20 22 21 24 24 24 21 19 19 19 13 10 10 8 8 11 16 15
32 31 30 29 29 29 23 25 26 23 21 20 19 18 20 21 25 26 21 19 25 17 15 12 12 11 7 6 7 12 15 14

GFSFLT2_925_spd_060.txt.gz
Wind_Speed
15 20 19 20 21 25 31 32 30 30 30 33 36 36 34 32 27 27 25 23 22 21 18 17 18 19 18 18 17 18 23 21
40 22 14 17 19 13 22 28 28 28 30 33 35 34 32 29 28 26 24 22 21 19 17 17 18 18 17 13 15 17 15 13
29 32 27 29 33 27 19 18 24 24 26 29 30 29 28 26 27 24 22 21 20 17 16 17 18 18 16 14 12 13 16 16
29 29 35 33 36 36 29 25 24 24 22 27 29 23 21 23 24 22 21 19 18 18 14 10 7 11 10 9 11 10 9 9
24 28 31 29 32 37 34 28 26 26 20 21 24 22 21 22 21 20 19 17 17 14 9 8 7 6 7 9 7 8 8 8
31 25 28 31 39 39 34 29 26 21 21 20 20 21 18 19 18 17 16 11 11 7 8 6 8 8 8 9 8 7 7 5
24 33 32 40 38 34 37 27 23 20 21 18 16 15 13 18 14 13 12 13 9 7 5 7 6 7 6 6 7 7 7 5
27 28 32 35 36 33 28 26 25 17 12 11 11 13 15 16 15 16 13 13 9 9 7 7 8 5 5 5 6 4 4 7
25 28 29 32 33 33 31 30 22 19 8 10 13 15 15 15 15 14 14 12 13 10 12 8 7 7 4 5 2 4 4 5
26 27 27 32 33 36 31 24 27 20 12 14 19 16 17 15 14 14 14 14 12 12 11 10 10 10 8 5 5 3 3 2
21 24 29 36 37 36 33 29 26 24 21 23 21 19 15 18 16 17 15 16 13 14 16 13 12 10 8 9 6 5 4 5
25 26 30 30 29 29 29 22 26 23 22 19 19 21 20 19 17 17 18 17 18 18 14 13 9 12 10 13 10 9 10 9
28 29 29 30 30 27 24 23 23 25 21 24 23 20 21 20 22 19 19 21 20 17 17 17 17 10 9 10 14 18 16 13
30 29 31 33 31 29 26 24 22 21 23 22 24 23 22 22 22 16 18 19 16 21 21 19 19 16 12 13 1 6 16 14
32 33 35 35 29 26 24 24 23 26 25 26 23 24 24 23 22 20 15 17 18 20 24 23 22 20 19 7 1 3 3 14
35 36 35 35 31 27 29 24 22 25 27 28 27 28 27 26 22 21 21 22 25 26 30 27 24 22 19 15 7 3 2 3
37 37 37 33 33 30 26 24 26 21 24 22 26 26 24 26 30 26 25 28 24 26 27 28 27 22 21 19 10 6 7 8
36 34 33 32 35 36 28 23 21 22 24 27 27 27 24 23 23 23 23 25 25 25 19 21 20 17 7 14 10 5 3 2
36 36 33 34 32 29 31 27 20 26 20 21 23 25 26 23 20 20 22 25 26 22 16 17 13 10 8 7 6 3 3 7
37 37 35 33 31 26 23 27 33 26 25 29 23 24 25 24 22 25 26 26 25 24 22 19 15 12 10 8 9 8 7 9

GFSFLT2_925_spd_063.txt.gz
Wind_Speed
18 17 29 38 27 32 30 33 30 27 31 34 35 34 32 30 29 27 26 24 22 21 20 20 21 22 21 23 19 20 20 21
7 10 14 13 15 29 22 26 29 27 32 34 34 32 30 29 28 26 25 23 21 20 21 23 23 21 19 21 20 22 19 18
24 28 26 23 28 32 29 18 26 27 30 33 33 31 29 29 27 25 24 21 20 22 23 22 19 16 16 19 17 16 13 14
21 30 31 35 39 40 43 31 25 25 27 28 30 28 28 28 25 23 22 21 19 17 16 14 13 12 13 15 14 11 11 12
29 30 32 39 37 38 36 34 27 26 24 28 27 25 27 26 25 22 21 19 16 13 11 14 12 10 13 13 13 10 9 10
31 32 33 37 35 34 38 38 31 29 32 28 28 27 26 24 23 22 18 16 11 8 9 7 7 10 11 11 12 10 7 9
28 35 33 35 36 40 38 37 28 28 28 24 23 26 24 23 21 19 15 12 8 9 4 7 9 9 9 10 10 8 8 8
30 36 37 38 38 41 40 35 29 32 28 20 16 17 22 20 17 14 13 12 10 8 5 7 8 4 7 7 8 7 6 5
29 39 40 43 44 41 35 30 34 30 24 15 16 17 17 16 12 13 13 15 13 10 8 8 11 4 3 6 6 7 7 6
29 31 40 42 41 36 33 36 32 23 25 21 19 18 12 12 12 17 17 17 14 13 13 12 10 10 8 6 8 8 7 7
32 35 37 40 39 35 40 37 33 28 20 20 13 13 14 18 16 18 15 18 16 16 15 14 14 14 15 13 12 10 9 8
31 34 33 31 33 30 32 33 33 28 20 15 15 18 18 19 20 16 19 17 18 19 18 17 15 18 17 17 19 15 12 11
29 29 32 34 34 32 29 30 27 29 25 20 23 22 24 21 21 20 19 21 22 21 20 20 19 15 15 12 19 17 18 16
29 29 33 34 31 32 27 28 27 30 27 25 25 26 26 26 27 26 23 24 25 26 24 24 22 20 11 5 3 9 20 20
28 30 34 33 36 34 28 27 26 31 33 31 27 30 28 28 29 25 26 29 32 30 26 25 23 23 21 8 1 4 4 13
31 32 33 37 36 31 30 27 25 29 32 30 31 29 31 29 30 31 29 30 29 30 27 29 23 21 17 16 4 5 1 1
36 36 37 39 37 34 32 29 34 33 35 35 35 34 33 33 31 28 27 27 28 25 26 27 28 19 11 12 9 3 6 2
37 39 40 41 39 40 35 35 33 34 38 37 39 39 38 36 34 32 30 26 25 27 27 25 29 24 22 15 14 5 4 6
38 40 41 42 39 39 40 37 39 38 36 37 37 36 38 37 32 27 28 27 24 26 24 24 21 19 16 16 17 13 10 6
40 40 40 41 41 44 42 40 37 40 37 36 39 38 37 33 31 22 20 20 21 23 22 21 18 15 17 18 18 17 13 12

GFSFLT2_925_spd_069.txt.gz
Wind_Speed
34 27 11 10 25 31 44 49 37 40 43 38 35 34 35 35 35 33 34 33 32 30 28 28 27 26 25 24 24 23 25 26
22 20 11 4 18 26 14 38 44 44 44 39 37 34 34 35 34 32 33 33 33 29 27 26 24 23 23 23 22 22 23 24
10 11 13 18 12 9 15 22 43 41 42 40 37 34 34 34 33 32 34 35 34 30 27 28 26 23 21 21 20 21 21 23
10 13 18 23 29 35 32 30 25 34 39 38 37 35 34 34 33 31 33 34 31 28 24 24 25 25 21 18 17 18 18 20
18 19 24 30 34 36 40 38 32 26 37 37 36 34 34 33 33 32 32 30 27 26 22 21 20 20 19 16 17 16 17 18
18 24 26 25 35 40 37 33 36 36 32 36 38 35 34 33 33 30 28 25 26 23 20 18 20 18 16 16 15 14 15 16
19 25 27 29 30 35 31 32 33 35 37 34 35 33 33 32 31 28 25 22 24 21 19 17 17 17 15 14 14 13 14 14
24 29 32 34 31 33 33 36 36 39 43 38 35 35 36 32 31 28 24 21 19 17 16 15 16 14 13 12 12 13 13 12
25 29 32 36 34 34 31 34 35 36 42 40 41 39 35 32 28 25 22 18 17 15 15 16 15 14 11 11 11 12 11 11
21 23 32 34 32 34 31 30 31 38 39 40 37 35 33 27 25 23 19 17 16 15 15 15 12 12 13 12 12 12 11 12
22 22 30 31 31 24 24 24 27 31 32 33 31 26 25 24 23 20 18 17 18 16 15 14 15 14 13 16 16 14 13 13
20 26 27 29 31 29 24 28 27 29 30 29 25 25 23 20 20 18 19 19 20 18 17 16 17 16 16 16 16 16 15 15
22 27 26 28 31 31 31 29 24 26 24 24 25 26 22 20 18 17 21 21 22 20 19 17 18 16 14 16 17 19 20 18
22 24 30 31 30 26 23 26 25 26 22 21 18 17 15 15 19 21 20 21 23 23 24 22 21 18 9 4 2 8 21 23
23 23 28 30 29 28 23 24 23 27 25 22 16 13 14 20 22 23 23 22 22 24 25 25 22 20 19 8 1 4 1 13
26 30 30 31 30 31 27 25 21 24 29 27 23 21 20 22 27 28 26 23 26 27 27 28 26 22 17 20 13 5 3 2
31 32 33 32 32 32 33 30 28 25 28 30 30 28 29 27 26 30 29 29 30 30 30 31 31 29 25 13 17 13 10 2
30 32 33 35 35 36 35 34 31 30 30 32 35 38 36 32 31 31 33 34 33 33 33 34 33 33 29 27 22 8 11 9
30 30 31 37 38 39 41 39 37 33 33 33 31 35 42 39 36 38 37 38 38 34 34 35 33 31 30 30 30 25 20 20
32 32 32 34 38 39 39 39 36 37 37 38 38 39 41 40 38 40 41 40 37 32 31 29 25 25 27 28 25 23 21 20

GFSFLT2_925_spd_072.txt.gz
Wind_Speed
21 20 18 20 12 11 10 34 36 36 37 36 41 38 32 31 33 31 30 29 31 33 32 30 30 28 27 27 27 27 29 29
23 23 21 16 23 18 18 39 46 40 41 37 39 41 35 33 33 33 30 31 32 32 31 30 29 28 28 27 25 25 27 28
24 22 20 11 10 15 19 44 41 43 40 42 39 39 34 33 35 34 31 32 31 30 30 29 28 27 25 23 23 24 25 26
11 11 13 14 15 10 22 39 40 41 40 41 42 35 34 34 34 35 31 31 30 30 29 29 27 26 25 23 22 22 23 23
16 17 19 16 18 25 33 15 40 38 35 38 37 37 34 35 36 35 33 32 31 32 30 27 25 23 23 22 22 21 21 22
18 17 20 18 21 27 29 28 36 41 37 37 42 38 36 36 38 34 31 30 31 30 28 25 22 20 20 21 19 20 19 20
18 20 22 23 22 25 30 25 35 38 39 43 43 39 35 36 35 31 29 27 27 26 26 24 21 20 19 19 19 18 18 18
19 23 22 24 25 28 27 23 34 38 38 39 38 38 36 35 30 25 26 25 24 25 23 23 22 19 18 16 16 17 16 17
20 23 27 26 28 29 25 26 31 36 35 37 40 36 34 29 26 25 24 23 23 23 22 21 20 16 15 16 16 16 15 16
17 22 27 27 31 28 29 25 28 37 32 32 34 33 29 31 29 24 23 22 21 21 21 20 15 15 15 15 15 15 14 15
17 20 23 27 25 26 24 20 23 32 34 35 33 28 32 31 25 23 21 21 19 18 18 18 17 14 12 11 12 13 14 16
16 18 21 24 23 25 23 22 25 28 44 36 35 32 32 29 24 20 20 19 17 15 17 15 13 12 10 10 11 12 14 15
18 21 24 27 27 27 26 25 26 31 39 36 34 29 25 25 24 22 21 17 15 16 18 16 14 14 11 10 14 16 18 18
15 20 23 27 28 20 21 25 25 31 31 33 30 31 29 26 25 23 20 18 17 21 20 16 14 15 7 3 1 9 22 25
19 21 24 25 25 22 19 22 20 23 24 27 26 25 30 30 26 19 17 19 20 22 24 21 17 17 17 6 1 4 1 7
22 23 26 28 29 29 26 26 22 22 32 32 33 29 25 23 21 21 18 21 22 23 24 25 21 19 18 23 17 6 3 2
26 27 29 31 33 37 32 26 27 27 27 28 27 25 22 22 21 19 18 24 25 24 25 25 25 26 26 14 23 14 10 5
27 29 29 32 33 34 36 32 32 29 28 30 30 28 27 23 20 21 21 23 27 25 27 27 29 29 31 30 25 10 13 9
29 32 33 35 34 35 35 37 38 35 35 33 33 33 32 30 27 27 26 27 29 29 29 31 32 33 34 34 32 30 25 17
34 33 32 37 36 35 36 35 35 35 35 35 35 35 35 36 36 34 31 30 29 31 32 31 28 28 30 32 32 33 27 22

GFSFLT2_925_spd_075.txt.gz
Wind_Speed
23 31 34 30 31 26 21 19 32 37 35 36 40 42 40 40 37 32 30 29 30 28 27 25 26 27 28 28 28 27 24 23
26 28 34 35 29 24 18 13 31 38 42 43 43 43 41 40 36 32 31 31 32 29 28 28 28 28 28 28 27 27 23 22
23 24 22 19 20 20 21 21 31 38 47 45 46 40 39 37 34 32 31 32 32 30 29 28 29 28 27 27 25 20 22 19
13 13 13 13 12 14 18 25 37 40 39 40 37 38 37 36 34 31 33 33 31 30 29 29 25 22 22 24 17 20 19 19
10 10 13 13 13 9 11 15 36 35 38 38 40 40 35 35 35 33 31 33 27 28 28 21 21 20 19 17 19 17 18 18
13 10 11 11 12 11 9 16 26 38 39 42 41 41 41 37 35 35 35 29 29 30 26 25 25 24 20 21 18 15 17 18
13 11 12 12 10 15 13 25 28 44 32 40 41 43 42 39 33 35 33 34 30 28 25 26 24 24 21 20 18 16 16 16
14 13 15 14 14 18 15 31 40 41 29 33 38 40 40 38 35 33 31 30 30 28 27 25 18 20 20 18 18 16 15 14
15 13 16 17 17 21 19 25 42 35 34 32 37 39 38 39 33 30 28 28 27 25 26 20 21 19 18 18 15 14 13 13
16 15 18 23 22 25 21 29 35 40 36 39 41 40 43 38 32 27 24 24 22 23 26 21 19 17 15 14 13 13 13 13
14 17 21 22 24 24 19 25 35 36 38 39 40 42 41 37 33 31 26 22 21 23 22 21 20 17 14 15 14 15 15 14
14 18 23 23 25 24 18 19 27 31 30 32 38 37 34 33 28 24 22 22 22 22 20 19 17 17 14 13 13 14 15 15
17 21 25 27 28 26 24 22 23 34 31 33 28 28 27 26 22 22 23 23 22 21 19 16 15 15 9 7 11 14 16 17
19 24 26 27 30 23 20 25 24 29 33 29 31 26 27 23 28 25 22 22 22 23 19 17 13 17 7 3 3 6 17 21
19 24 26 26 28 27 22 24 25 25 36 28 28 33 30 33 31 29 27 25 25 23 22 18 14 18 17 5 2 5 2 7
19 20 26 25 31 25 27 22 23 26 40 33 36 36 32 32 27 25 26 26 26 23 19 22 21 13 17 20 14 4 3 2
21 21 23 21 27 25 28 23 23 34 38 39 35 40 37 38 35 32 28 31 26 22 23 24 25 19 21 14 21 16 11 10
22 25 24 24 25 26 28 27 26 29 33 37 37 39 44 40 36 34 30 28 25 25 21 22 26 27 26 21 17 9 13 14
24 27 27 27 28 28 27 29 28 28 31 32 31 32 34 34 34 33 30 27 25 21 20 21 23 26 26 22 21 23 23 22
26 26 27 28 29 30 30 27 28 27 29 29 33 31 34 36 33 29 27 27 25 22 21 21 23 23 23 23 23 26 28 26

GFSFLT2_925_spd_078.txt.gz
Wind_Speed
19 20 21 22 22 22 28 28 32 36 35 23 26 32 35 35 32 37 36 30 26 25 24 25 24 25 26 25 26 20 19 20
21 24 22 24 14 18 19 21 29 32 24 28 29 31 34 38 35 33 34 30 26 25 24 25 25 25 26 27 25 21 18 19
18 23 27 20 19 20 16 10 17 28 30 33 37 37 34 37 30 32 32 31 28 26 25 26 26 25 25 25 19 16 17 16
18 17 17 15 17 17 13 13 16 27 31 42 42 40 37 29 36 33 34 33 29 28 28 28 24 21 21 16 13 15 14 15
15 16 13 16 16 11 18 21 23 25 30 26 45 40 33 32 36 30 31 32 26 25 27 22 20 19 20 13 16 14 13 15
12 13 11 12 16 16 15 15 16 26 27 41 44 35 30 29 32 30 30 29 27 24 21 18 19 17 15 16 15 14 13 15
11 10 9 9 9 10 13 15 20 22 39 45 47 35 30 26 30 28 28 26 26 23 18 19 18 16 15 16 14 14 14 14
8 8 8 7 6 9 14 21 29 40 38 40 40 38 32 28 29 28 24 24 23 20 19 19 17 15 15 14 13 13 12 12
10 9 8 7 8 11 21 30 32 33 38 39 38 37 38 37 31 28 25 21 20 19 18 17 15 14 13 14 13 12 11 11
11 9 9 11 10 12 20 33 36 41 39 39 40 33 37 36 34 29 26 24 20 18 18 16 15 14 14 13 12 11 11 11
11 11 13 16 15 14 18 28 32 33 37 33 36 33 34 34 27 25 24 21 22 17 16 14 14 14 13 12 11 12 13 13
11 12 14 17 17 18 25 32 33 33 31 30 32 28 30 27 25 23 21 21 18 15 14 11 13 13 12 11 11 11 12 12
11 15 18 21 23 20 24 28 32 30 26 29 34 31 34 27 25 24 21 18 18 15 12 11 10 11 11 9 9 11 12 13
13 16 22 20 20 21 17 32 30 29 30 33 35 34 40 32 26 24 21 17 12 14 14 13 10 12 7 8 5 10 16 17
16 16 19 18 19 20 19 25 26 26 30 35 35 35 35 30 27 24 19 14 18 23 21 17 13 14 15 6 2 4 3 11
18 18 19 19 24 20 23 20 24 26 30 33 36 34 33 33 29 26 24 20 20 20 20 20 16 15 14 16 9 3 2 4
20 21 20 21 23 22 25 22 25 27 30 29 33 35 36 32 27 26 23 21 19 18 19 21 20 17 16 11 14 14 17 11
23 24 24 23 26 25 26 25 26 26 29 31 26 33 34 33 30 30 26 25 20 20 21 20 20 20 19 15 15 9 15 17
26 26 27 25 27 27 28 27 32 33 34 33 33 31 31 37 41 36 35 32 29 23 22 24 22 23 18 20 19 22 20 19
28 30 30 30 29 30 29 28 28 30 34 37 37 34 36 40 42 42 42 32 30 28 27 24 19 18 20 20 21 22 21 21

GFSFLT2_925_spd_084.txt.gz
Wind_Speed
5 6 11 15 15 15 13 10 27 26 19 30 31 32 33 33 29 27 27 25 22 24 28 28 28 28 21 21 19 25 26 24
6 9 10 13 16 20 16 12 16 15 18 23 31 28 26 30 29 28 27 23 23 28 28 26 29 26 22 20 21 22 23 24
8 6 10 10 16 21 19 15 14 9 17 16 27 29 31 23 28 29 27 24 25 28 27 25 27 25 23 25 23 18 24 24
6 7 9 11 10 10 12 13 16 19 19 24 24 26 29 24 23 27 26 27 25 26 25 25 27 25 26 22 12 20 24 21
9 10 9 12 14 11 12 10 13 22 26 27 26 31 28 28 22 26 27 27 26 25 26 25 27 28 21 12 10 24 24 23
8 11 10 10 10 14 14 14 15 22 29 30 30 33 31 34 31 30 29 28 27 28 29 22 25 23 14 9 19 26 26 24
13 12 14 11 9 9 11 14 17 19 25 30 33 33 36 35 37 33 28 26 25 32 25 27 24 20 11 20 9 27 22 24
16 15 13 11 9 11 12 14 14 18 24 29 34 32 41 38 36 32 27 30 29 28 20 24 23 17 18 15 15 23 22 20
20 18 14 11 10 10 10 13 16 15 24 28 33 32 41 38 37 33 28 28 30 21 25 21 21 17 18 14 14 19 19 22
19 17 13 12 9 9 9 12 14 20 22 27 34 38 47 41 41 31 24 28 25 29 26 22 21 21 18 15 16 13 24 21
17 15 14 12 11 10 13 15 16 21 27 32 40 40 39 43 39 37 30 30 22 26 24 19 21 22 19 16 17 14 15 19
20 16 14 12 13 17 18 22 22 27 27 30 37 40 41 39 35 25 22 26 26 23 19 17 18 21 18 14 15 17 17 15
19 19 16 15 15 20 23 23 27 30 33 29 33 37 38 38 30 20 21 23 26 24 21 17 16 15 13 16 11 13 18 16
22 20 18 16 18 20 20 27 24 29 31 24 29 41 44 39 35 27 22 27 26 24 24 21 22 23 14 17 3 6 11 15
21 22 22 20 22 23 22 22 23 21 26 30 32 35 38 30 30 32 29 33 29 27 27 23 19 19 14 8 4 4 10 16
20 21 22 24 25 27 27 27 26 27 29 28 33 32 31 32 28 33 29 31 26 27 27 29 21 21 21 14 11 7 3 1
22 23 23 24 27 32 32 26 27 27 26 25 30 27 29 28 36 36 33 28 27 28 26 26 24 27 24 17 19 13 11 5
24 24 24 25 28 32 32 30 29 27 27 29 29 26 32 35 30 34 33 30 32 28 28 29 28 21 20 20 13 13 12 7
27 27 26 26 28 30 32 33 34 34 34 33 32 27 27 36 36 34 37 37 30 28 30 29 26 21 22 20 21 20 14 17
27 30 28 29 27 30 31 35 35 35 37 34 35 32 33 33 37 39 38 37 35 29 26 27 26 25 23 26 26 27 27 25

GFSFLT2_925_spd_087.txt.gz
Wind_Speed
5 7 13 14 16 19 21 23 24 17 25 29 25 30 29 32 30 29 29 26 22 32 31 29 31 27 20 18 33 29 27 26
8 9 11 14 14 15 16 14 12 17 15 16 27 24 26 31 30 27 27 23 22 29 29 30 30 26 24 31 29 25 24 26
9 11 11 12 15 16 16 11 10 15 15 16 19 23 30 29 28 29 27 23 26 29 29 31 29 28 29 32 28 26 25 27
14 10 12 11 15 16 16 13 13 14 12 15 26 32 33 30 22 24 23 23 31 30 28 30 29 29 28 27 23 28 26 30
13 11 12 14 13 11 12 12 16 17 18 14 20 33 37 32 28 23 25 25 29 28 26 29 30 30 30 19 25 28 28 30
11 14 13 15 14 14 13 11 12 16 21 20 33 34 37 32 35 28 26 26 27 28 28 30 30 29 22 15 27 27 30 31
15 15 14 15 16 16 14 14 12 14 20 26 36 39 36 35 35 36 33 28 29 29 28 29 31 26 14 15 29 27 30 31
19 17 19 17 15 13 15 16 18 15 25 34 34 39 36 38 35 37 34 31 31 34 28 33 30 18 15 19 26 27 29 29
24 20 18 17 14 14 14 16 17 19 25 31 37 41 39 41 35 40 35 34 34 33 25 30 24 17 18 16 27 26 27 29
27 24 18 16 16 16 16 15 14 17 23 30 39 39 42 39 38 40 34 36 41 31 34 30 25 23 21 21 26 25 25 27
26 22 20 18 16 12 10 10 13 17 21 24 35 41 41 38 38 40 37 38 39 28 34 32 28 26 19 18 24 25 24 23
26 23 21 18 16 12 11 12 11 13 20 27 29 39 41 41 44 41 42 40 35 37 34 28 28 28 22 18 17 23 24 22
29 26 22 20 20 21 20 17 16 17 19 28 35 38 41 40 38 42 36 37 37 38 32 32 31 29 25 19 18 18 20 21
30 27 24 20 22 21 19 22 20 22 23 27 33 38 41 40 41 33 31 36 36 35 33 30 32 30 22 16 3 10 20 19
33 28 24 21 22 21 20 19 23 21 19 28 31 35 39 40 36 34 34 31 34 32 33 28 27 25 23 9 2 4 6 12
30 27 25 23 24 25 25 21 20 18 23 24 28 34 40 40 41 31 32 29 29 32 33 33 30 26 20 15 9 11 4 1
32 28 23 27 27 26 28 22 22 24 21 25 27 25 28 34 37 29 30 32 32 32 33 32 30 28 26 18 13 13 12 4
35 31 27 27 29 27 29 27 24 24 24 25 25 29 33 30 33 35 29 36 38 34 31 31 29 26 28 20 18 8 11 6
34 31 27 27 31 32 29 29 29 31 31 29 28 27 31 34 33 37 37 34 37 35 34 33 34 27 26 26 22 17 16 23
31 32 28 27 31 33 32 30 30 30 34 30 31 29 33 32 34 38 40 38 35 35 35 35 33 29 30 32 24 26 22 20

GFSFLT2_925_spd_090.txt.gz
Wind_Speed
13 13 13 17 19 21 23 25 28 28 28 26 24 22 20 13 22 28 31 29 30 35 37 37 34 30 23 26 29 27 29 27
13 12 11 14 16 20 21 21 21 25 19 26 28 24 25 15 28 30 31 30 36 36 35 34 28 22 24 31 29 28 28 29
13 14 12 14 16 17 18 19 21 19 16 16 17 20 37 20 37 34 32 27 36 35 32 31 23 22 33 32 30 28 29 30
16 16 15 15 17 18 18 17 16 16 17 19 19 21 28 29 33 31 28 26 35 34 31 30 26 38 37 32 28 29 30 29
20 18 16 17 16 18 17 17 17 16 14 11 21 25 28 28 28 28 27 27 35 32 32 32 32 35 32 30 29 29 30 29
20 19 17 16 15 16 16 16 19 20 19 10 16 32 29 31 33 29 28 29 33 33 35 32 30 27 25 31 29 29 31 31
20 21 18 19 16 16 14 14 16 22 24 19 29 34 38 38 33 35 34 34 37 32 34 33 30 22 21 26 29 30 31 33
21 23 21 19 19 18 16 14 13 17 28 30 32 36 36 35 36 35 35 37 37 34 35 36 30 21 15 26 29 29 31 32
26 22 23 20 18 16 15 15 16 16 22 29 35 39 40 38 36 35 35 38 38 37 33 35 28 18 20 29 28 30 30 30
28 24 24 22 18 16 16 15 15 19 23 32 37 41 43 35 34 38 35 36 39 38 36 34 29 21 30 29 29 29 29 29
32 28 26 23 20 18 18 17 16 15 20 33 38 37 42 38 35 36 38 36 38 38 35 39 30 26 29 29 31 30 29 29
33 31 27 24 22 18 15 12 13 18 20 21 36 41 40 40 37 42 39 40 37 35 35 36 29 28 27 30 28 28 28 28
35 34 30 27 22 17 13 12 14 17 19 24 26 27 38 37 36 36 44 40 36 36 37 35 30 28 29 25 22 26 27 27
36 35 32 29 22 20 15 16 13 16 16 19 24 29 39 38 42 42 33 34 36 35 34 29 26 32 22 19 4 6 20 26
37 35 32 28 23 20 15 15 12 13 13 18 25 28 35 39 42 41 38 35 40 42 40 33 25 30 30 14 3 4 9 18
37 36 33 29 26 25 24 17 13 12 17 16 19 24 30 38 37 41 36 32 34 36 41 36 31 28 30 19 11 9 4 2
37 36 33 29 27 27 27 20 17 19 17 21 22 21 24 27 35 42 42 38 36 40 40 38 40 32 30 22 12 11 10 3
36 35 33 30 29 29 29 25 21 23 20 21 22 22 26 29 38 45 38 35 31 35 32 36 40 37 32 28 21 11 9 6
32 33 30 32 31 30 29 28 27 29 29 25 23 23 25 32 35 35 40 36 35 36 36 33 29 32 32 28 26 22 20 20
31 32 30 31 31 31 30 28 30 30 32 30 29 29 27 33 37 34 31 34 36 36 37 36 33 32 32 34 31 22 23 21

GFSFLT2_925_spd_093.txt.gz
Wind_Speed
19 16 16 16 17 19 21 22 24 25 26 26 25 28 28 11 16 16 22 27 28 34 36 36 34 32 32 31 29 27 27 27
17 15 15 15 17 19 21 25 26 27 27 26 26 26 20 20 31 20 25 28 34 35 35 34 32 31 29 29 28 28 27 27
17 17 16 16 16 17 20 20 19 21 26 25 24 22 28 34 31 35 27 27 36 38 37 33 30 28 28 28 29 28 27 27
19 18 18 16 15 16 18 18 20 23 26 23 27 28 32 29 31 33 32 30 36 41 38 29 26 31 32 31 28 27 28 28
20 20 19 18 15 17 18 19 20 22 22 21 23 21 27 35 31 32 33 40 39 39 33 28 29 36 35 30 26 28 27 28
21 20 20 18 16 19 19 19 20 21 20 20 22 27 29 29 35 35 28 36 40 36 33 29 32 36 34 29 28 28 29 28
25 22 22 19 16 17 19 20 21 20 18 17 17 23 25 20 30 33 26 32 41 38 34 31 34 35 30 28 29 30 29 29
25 24 24 22 20 18 19 18 18 19 20 18 16 26 21 20 28 32 34 34 42 39 37 37 33 31 29 30 28 27 28 29
28 25 26 23 22 20 18 17 16 16 21 22 26 30 33 31 34 34 34 34 38 41 37 34 30 28 29 30 27 27 28 29
28 27 28 25 24 22 20 18 17 17 19 25 31 29 33 36 34 36 36 36 39 40 40 35 32 29 30 30 28 28 28 29
32 30 30 27 24 22 19 19 18 18 20 25 31 34 33 34 35 35 36 35 39 38 37 36 30 28 28 30 28 28 28 28
33 31 31 28 25 21 20 18 16 17 17 23 29 36 37 36 33 36 36 37 35 37 38 32 29 28 27 28 28 28 29 29
35 34 33 31 27 23 18 19 17 16 18 21 17 34 39 37 33 36 37 34 38 37 31 35 29 29 22 16 17 23 25 27
32 35 34 29 27 22 14 17 16 18 19 20 21 24 34 38 32 36 38 32 28 31 34 27 26 33 17 15 3 4 13 21
35 35 36 28 29 23 14 14 10 14 16 18 20 22 26 31 35 37 39 34 34 34 33 29 27 28 31 14 3 3 6 13
34 32 33 26 30 26 23 17 10 13 16 15 17 21 26 27 32 38 40 44 33 33 34 30 27 24 30 19 13 12 4 2
33 29 31 26 32 28 24 20 16 15 14 12 14 18 24 27 32 33 43 39 38 42 31 35 31 27 26 18 12 14 11 3
30 29 28 26 32 28 26 24 19 17 17 18 16 17 19 28 32 31 35 40 36 34 31 32 35 31 27 33 25 13 9 6
29 29 27 29 32 30 27 25 22 23 22 20 20 21 20 25 28 35 33 33 36 31 37 39 39 43 44 37 28 23 18 20
30 29 27 29 31 31 28 24 25 24 26 24 24 24 23 28 30 30 30 35 35 37 37 38 40 38 41 43 40 31 23 23

GFSFLT2_925_spd_096.txt.gz
Wind_Speed
19 18 18 18 17 18 18 20 20 22 25 27 26 28 30 27 25 24 14 18 25 28 32 34 34 34 31 29 28 28 27 27
20 19 18 18 19 18 20 21 22 25 26 26 30 32 34 30 29 23 17 26 27 31 34 35 35 32 29 29 28 26 26 26
20 20 19 17 17 18 18 22 24 25 25 27 30 34 30 26 24 20 31 31 27 33 36 35 33 30 28 27 26 26 26 25
23 21 20 17 16 17 20 20 22 21 24 27 27 29 27 21 25 29 31 32 32 34 36 35 32 31 29 27 26 26 25 25
26 24 21 18 18 17 19 22 22 24 26 25 25 25 22 23 26 29 27 29 31 34 36 35 34 31 30 27 25 25 24 24
24 23 22 20 20 18 19 20 22 23 25 24 23 25 27 30 33 29 27 28 28 34 39 36 33 31 30 28 25 23 25 25
26 23 24 23 22 21 20 22 22 23 23 23 22 23 27 30 35 27 27 33 34 36 37 34 33 33 32 28 26 24 25 25
29 25 24 26 25 22 20 21 21 21 21 22 22 23 26 27 30 28 30 30 39 39 38 35 35 35 33 29 26 27 26 28
30 27 24 26 25 23 23 22 22 21 20 20 20 17 19 22 22 31 34 35 34 37 36 35 35 35 32 29 27 26 27 27
31 29 27 28 27 25 22 21 20 19 18 21 20 19 21 23 20 24 30 32 38 38 36 34 35 34 31 29 27 26 27 27
34 31 29 28 26 24 21 21 20 20 19 20 25 24 25 25 26 29 32 31 34 36 35 36 34 30 31 28 27 27 27 27
34 33 29 29 26 23 20 20 20 20 21 20 25 29 30 27 26 30 32 30 30 31 37 35 36 33 26 25 25 25 26 26
36 36 32 31 29 25 21 22 21 20 19 19 25 27 32 33 31 31 32 30 33 36 34 35 28 30 26 16 14 17 21 23
35 33 33 32 31 24 18 21 21 21 19 19 21 19 27 34 31 35 36 31 31 37 30 26 21 30 15 16 4 3 12 19
38 33 33 30 28 25 17 16 14 18 19 19 20 21 21 34 34 38 39 37 35 37 34 36 24 29 26 10 3 3 6 12
32 31 33 28 30 26 23 17 11 17 19 19 19 20 18 24 25 36 38 37 37 38 38 31 25 28 27 14 11 15 4 2
31 30 32 31 33 31 28 21 17 13 15 14 17 18 21 23 25 29 34 38 35 36 39 35 32 30 26 19 15 16 12 4
29 32 31 31 31 33 30 24 18 15 14 13 13 15 19 21 29 31 34 38 40 38 36 38 37 32 30 30 21 10 8 5
30 32 31 31 31 33 30 26 22 17 17 17 17 15 17 24 24 27 32 34 37 42 37 38 34 36 38 34 28 21 18 18
32 32 29 30 30 32 29 25 23 20 21 20 20 17 15 17 22 27 31 36 35 36 36 37 36 34 38 28 22 22 20 31

GFSFLT2_925_spd_099.txt.gz
Wind_Speed
18 19 19 18 19 18 18 18 20 22 23 24 26 28 23 28 28 26 25 23 21 20 23 28 32 31 29 29 27 25 19 18
19 19 19 19 19 19 19 19 21 22 23 23 26 25 27 24 28 29 26 26 24 18 27 29 32 31 30 29 26 24 17 18
21 20 20 20 20 20 19 20 21 23 23 25 25 25 24 27 30 29 24 27 28 28 37 31 32 32 30 27 25 18 17 16
22 22 20 19 19 19 20 22 22 25 25 26 28 29 31 31 31 25 21 24 26 33 35 32 32 31 27 27 17 18 16 16
25 24 21 20 19 19 19 22 23 21 23 26 30 32 33 30 28 25 23 25 26 29 31 31 25 24 22 19 17 18 15 14
24 24 23 21 19 21 20 23 24 24 25 26 29 30 32 29 26 24 24 27 30 31 29 27 25 24 25 21 19 16 16 15
25 25 25 22 21 21 21 21 24 23 24 27 27 29 31 29 25 26 27 25 36 36 36 36 29 26 22 23 20 17 16 16
26 27 26 25 24 23 21 21 22 24 25 27 26 27 28 27 25 31 31 28 32 38 39 34 26 22 20 18 18 17 17 17
29 29 27 28 26 24 22 21 22 23 24 26 26 23 20 20 22 30 29 33 34 37 38 33 22 21 19 18 16 17 18 19
27 30 30 28 27 26 24 22 22 22 21 21 22 21 19 16 17 27 32 35 37 42 42 35 25 22 20 18 16 15 17 21
27 29 32 30 28 26 24 23 23 21 21 20 21 20 18 18 17 23 32 32 34 36 35 35 26 20 19 18 16 16 18 18
27 28 30 31 28 25 22 22 22 19 20 20 20 22 22 23 20 23 26 29 31 30 33 30 29 22 20 16 14 15 16 16
29 30 32 32 31 29 27 25 24 20 18 20 21 25 26 26 23 23 28 30 31 34 34 32 25 21 19 12 9 11 13 15
30 32 33 31 30 27 19 24 24 23 20 19 20 22 27 34 31 28 29 28 27 34 33 28 23 32 17 17 3 4 10 14
35 36 34 31 30 27 22 19 16 21 21 20 21 20 25 28 32 33 35 35 33 36 36 33 23 28 25 11 4 4 12 12
29 32 33 34 35 31 27 21 15 21 18 19 17 21 20 21 28 34 36 37 36 35 38 34 31 29 25 20 14 13 6 5
29 31 30 32 36 31 27 19 16 13 15 15 15 17 19 15 20 35 34 36 38 40 33 34 31 32 28 20 17 9 13 5
30 32 31 31 33 33 31 22 18 14 13 14 13 15 17 17 23 28 33 38 37 39 43 36 30 30 31 28 25 13 10 6
31 34 32 32 31 32 28 20 18 15 14 14 11 14 17 19 26 30 32 30 32 36 40 42 39 35 36 34 29 26 25 18
30 32 31 31 31 30 24 20 17 14 14 13 12 14 14 18 18 26 29 31 31 35 38 43 35 34 34 32 29 29 28 23

GFSFLT2_925_spd_102.txt.gz
Wind_Speed
14 15 16 18 17 19 19 19 18 18 18 19 20 24 25 27 25 25 14 23 23 24 24 20 22 22 26 26 24 18 13 12
14 15 15 15 15 17 18 18 19 20 21 21 23 25 27 32 22 24 23 27 28 25 26 28 26 21 26 25 23 20 13 13
15 16 15 15 15 15 18 18 18 20 21 22 23 21 24 20 22 24 26 27 25 25 25 23 21 27 27 27 23 15 13 11
17 16 16 14 13 13 16 16 19 20 20 20 21 21 20 20 21 25 27 27 21 23 20 22 23 24 24 25 18 13 12 10
18 18 17 16 15 14 17 20 20 19 22 18 21 19 19 21 20 22 23 23 22 22 22 25 28 27 25 22 15 14 11 9
19 19 18 18 15 15 14 20 20 21 22 21 23 19 21 25 21 23 22 17 20 21 29 29 31 26 24 20 15 14 12 11
23 21 20 19 18 15 14 19 20 18 21 23 24 20 22 30 26 26 19 19 21 26 33 28 26 24 22 19 17 14 12 12
23 23 22 20 19 17 15 14 15 18 21 25 26 20 25 28 25 20 20 15 23 31 33 31 26 23 21 19 17 15 14 12
25 24 23 22 20 18 16 15 15 16 21 22 24 26 20 21 23 22 22 20 25 34 36 35 29 23 22 19 17 15 13 14
25 25 24 23 22 19 18 16 16 17 17 21 22 22 18 16 17 22 21 22 30 30 37 34 31 25 22 20 18 15 14 15
25 27 27 25 21 19 18 17 16 17 16 17 18 19 19 17 16 21 22 26 33 37 35 38 25 23 21 19 17 15 16 15
23 27 26 25 25 20 18 17 16 16 17 16 17 18 18 17 13 14 23 28 30 32 36 35 30 21 20 18 17 15 15 15
25 27 28 27 26 24 21 18 21 16 19 15 17 17 18 18 16 17 23 28 28 30 31 33 28 22 20 14 11 12 13 14
24 29 31 31 29 26 19 19 17 17 17 15 16 18 21 21 25 22 23 23 29 34 27 27 20 25 16 17 4 3 11 14
27 30 31 31 29 25 19 18 12 14 16 19 19 17 22 28 25 26 26 26 28 30 33 32 20 28 21 12 4 4 13 15
25 27 31 31 31 29 28 25 19 20 19 16 19 17 18 26 30 27 31 29 29 30 31 33 26 26 25 27 19 12 9 6
23 26 31 32 34 30 28 22 18 15 17 16 18 19 20 19 24 35 33 34 33 34 29 30 30 28 28 26 17 16 21 13
23 28 33 34 34 32 29 25 19 16 18 18 17 17 19 20 19 28 33 36 34 36 36 34 29 30 30 29 24 18 16 12
25 29 33 34 34 34 29 25 20 17 17 16 16 15 17 19 20 22 32 33 34 35 36 39 36 32 29 28 26 23 22 14
26 30 31 32 32 32 27 24 19 16 16 14 14 13 14 14 20 24 23 31 31 32 34 36 34 31 31 31 29 24 28 27

GFSFLT2_925_spd_105.txt.gz
Wind_Speed
13 15 16 18 17 17 17 16 16 16 18 18 19 24 25 26 25 22 20 21 20 22 19 20 21 23 21 21 20 15 6 18
14 15 15 14 14 18 18 17 17 16 16 19 21 23 25 27 23 22 21 16 21 19 19 18 20 17 19 22 20 13 4 13
15 15 15 15 15 15 18 18 17 17 18 19 21 21 24 23 23 21 23 17 21 19 19 19 16 15 15 20 19 14 10 11
16 16 16 15 15 14 14 15 15 16 17 18 19 19 19 21 22 19 20 20 21 19 17 22 23 22 21 23 21 11 14 13
19 18 17 16 15 14 14 16 17 17 18 19 21 21 20 22 20 19 19 23 20 16 21 25 23 24 25 22 20 16 15 15
21 19 19 17 15 15 15 14 15 16 15 18 19 18 19 19 19 18 20 21 21 19 22 26 21 24 26 24 17 21 18 16
23 21 20 19 17 13 14 14 15 17 14 16 17 17 17 17 16 15 18 19 18 19 24 26 25 29 30 25 21 21 19 15
23 23 22 20 19 15 14 13 14 15 15 16 18 19 17 17 16 17 19 20 20 19 24 27 27 31 30 26 23 18 17 20
24 23 24 23 21 18 16 14 13 15 20 15 17 18 18 17 19 22 21 18 16 20 22 28 29 30 29 26 22 17 17 20
24 24 25 25 22 20 18 16 15 12 15 16 18 18 18 18 18 19 18 19 19 22 26 32 30 27 26 25 20 19 17 17
24 25 25 26 24 21 19 17 17 15 16 16 17 19 20 19 17 16 17 16 20 25 30 34 30 29 23 22 24 20 18 17
24 26 26 26 24 22 20 17 15 16 16 16 17 18 21 19 16 15 15 18 20 27 27 30 32 30 22 17 23 16 18 18
23 27 28 27 27 27 25 21 19 18 15 16 17 17 18 21 16 17 17 19 23 29 28 31 23 31 23 16 15 13 16 15
25 27 28 30 27 27 24 19 19 18 17 18 17 17 18 17 16 15 17 18 21 27 24 23 16 28 18 18 4 4 10 14
24 27 30 30 27 25 21 19 14 19 18 18 20 19 19 17 18 16 17 19 24 26 28 22 22 21 27 9 4 3 12 11
27 27 29 31 29 28 29 26 21 20 20 18 20 19 19 18 19 22 19 21 24 26 28 25 24 21 23 11 11 13 5 5
27 28 30 31 32 31 30 25 22 18 20 18 20 20 18 18 22 21 22 24 25 26 27 24 27 26 23 19 16 22 21 12
28 28 30 33 33 35 31 28 24 22 21 18 19 19 20 19 22 27 29 28 26 29 28 28 26 25 23 21 25 20 15 15
26 30 32 33 34 35 32 29 25 22 21 20 19 19 19 20 20 22 29 33 31 31 32 31 32 28 27 26 27 22 20 19
30 29 30 33 33 34 32 29 25 22 21 19 18 19 19 18 20 21 23 31 28 31 32 36 31 31 29 28 26 23 21 19

GFSFLT2_925_spd_108.txt.gz
Wind_Speed
12 18 17 16 16 15 14 13 13 13 16 15 14 17 20 21 22 21 20 18 17 15 14 13 11 11 10 15 21 18 7 13
11 15 17 18 17 16 16 14 13 13 14 16 16 17 20 22 22 21 20 20 18 15 14 14 15 14 11 16 17 14 4 14
16 16 14 14 13 17 16 15 14 14 15 16 17 18 21 22 24 22 20 19 17 16 16 17 18 18 20 14 15 12 15 19
20 19 19 17 16 13 16 16 17 17 16 16 19 20 19 23 24 21 21 22 15 18 18 20 19 22 23 21 19 13 13 18
21 21 21 20 16 17 14 15 14 15 15 17 19 19 19 21 21 23 21 19 17 19 19 21 21 24 22 21 22 17 15 17
24 24 21 23 18 22 18 20 20 19 19 19 19 20 19 19 20 19 20 18 20 21 22 22 22 21 20 25 32 20 20 20
28 26 26 24 22 22 19 17 16 16 16 18 20 21 20 22 20 19 19 19 22 22 20 23 24 23 13 25 25 24 23 21
35 30 29 26 28 19 19 20 17 20 17 17 19 20 19 18 18 19 15 20 22 24 25 24 25 25 20 28 27 25 23 21
38 36 29 28 25 22 20 19 19 17 19 16 18 19 19 17 17 17 18 21 24 21 20 22 24 24 22 30 28 24 25 25
36 35 33 28 27 25 23 21 21 20 19 20 16 20 17 17 19 20 21 21 21 21 22 22 22 23 26 31 29 25 28 28
37 38 35 33 27 26 24 22 22 18 14 21 19 18 19 19 19 19 20 20 21 20 21 22 23 25 28 35 31 23 28 25
35 37 36 35 28 25 24 22 23 19 20 20 19 19 20 20 18 17 17 19 21 21 21 22 25 25 26 26 24 23 27 27
26 34 35 33 30 27 25 25 24 23 18 21 21 19 20 21 19 19 16 20 21 20 21 24 24 29 18 21 9 13 23 22
16 31 32 31 28 27 24 23 23 23 22 20 20 20 20 20 20 20 22 18 20 20 23 18 17 27 17 12 3 9 13 22
19 20 31 30 27 24 22 22 21 20 22 23 26 20 21 18 18 22 20 20 20 21 26 22 11 24 29 7 3 3 9 12
26 26 27 31 30 27 29 25 21 21 22 23 22 24 20 21 19 22 20 20 18 21 26 25 21 20 21 21 4 20 4 3
20 32 31 32 37 31 31 24 22 22 21 25 23 23 24 18 22 22 21 22 21 22 26 25 24 23 17 20 19 17 9 5
24 24 32 33 39 38 31 29 25 23 25 24 25 22 22 24 23 26 23 23 23 23 24 24 29 21 24 24 20 10 9 8
27 25 28 34 38 38 34 31 27 26 27 26 25 23 24 27 25 26 26 24 25 24 25 26 24 26 26 28 25 21 18 21
32 25 24 31 30 34 35 28 29 24 28 25 24 25 24 26 24 25 31 28 27 28 29 28 28 28 30 29 25 26 23 24

GFSFLT2_925_spd_111.txt.gz
Wind_Speed
23 23 21 20 18 16 15 15 14 15 16 16 15 18 17 17 18 18 16 15 15 14 13 11 11 11 12 13 15 12 13 11
23 24 23 22 20 17 16 15 15 14 17 17 15 16 17 18 18 19 17 16 16 15 14 13 13 15 15 15 15 15 5 13
20 23 23 23 21 19 18 16 16 15 16 18 17 17 18 20 20 20 19 18 17 17 15 15 16 17 15 13 12 13 7 13
20 22 23 22 22 21 20 19 18 18 18 19 19 19 20 21 21 21 19 19 18 18 16 16 18 19 17 17 16 12 10 19
22 22 22 23 22 20 21 21 20 20 19 19 20 20 20 22 22 23 21 20 20 18 18 20 21 19 18 17 17 10 17 20
28 24 24 25 23 22 20 22 21 22 21 20 20 21 21 20 23 24 25 25 23 20 22 23 22 19 20 18 19 19 17 21
36 33 31 30 26 24 23 23 23 22 21 22 22 23 24 23 22 23 24 25 23 24 25 26 23 20 20 19 18 24 17 24
42 41 39 36 29 28 27 24 25 24 23 25 23 22 25 24 23 22 19 20 23 26 28 27 25 22 22 21 12 22 21 26
43 45 43 40 34 30 33 29 26 27 24 23 18 20 23 24 22 23 24 23 23 27 26 24 23 24 25 23 16 21 23 28
45 45 47 43 41 33 32 29 29 28 28 24 21 21 21 23 23 23 23 22 26 28 27 25 24 23 25 23 21 26 25 30
42 42 45 46 42 40 33 30 29 25 24 28 24 24 23 23 24 24 23 21 23 26 26 25 22 23 23 21 24 25 22 28
43 43 47 47 42 38 33 28 29 30 28 27 29 25 26 24 24 25 25 23 25 25 24 26 23 23 20 22 27 26 21 29
38 38 37 36 35 33 34 33 34 32 30 26 29 28 27 27 25 23 24 26 25 25 26 25 23 21 18 18 22 23 23 25
33 38 40 39 34 33 30 34 32 30 28 27 27 28 26 28 27 26 26 26 24 24 24 20 21 24 12 13 3 7 23 25
28 36 38 35 32 29 24 26 25 27 28 28 30 28 26 27 29 28 27 26 26 25 25 25 18 24 26 7 4 2 15 19
9 41 41 41 40 36 35 30 21 25 28 32 29 26 27 28 30 29 28 27 25 26 26 26 21 17 18 25 9 24 8 4
28 9 33 38 44 42 39 30 31 27 26 30 30 32 24 31 30 27 27 25 23 24 25 27 26 17 19 20 16 21 14 6
29 28 11 33 41 42 39 35 30 26 30 30 32 31 33 28 29 28 25 23 24 24 24 26 27 24 22 26 24 16 12 9
30 27 29 18 42 41 40 38 36 35 35 29 28 31 32 33 30 29 27 24 24 24 25 28 26 25 26 27 27 27 27 19
32 33 31 29 33 41 37 35 33 34 34 32 33 31 28 33 33 30 29 25 23 25 26 26 29 28 29 30 28 29 32 27

GFSFLT2_925_spd_114.txt.gz
Wind_Speed
30 27 25 24 24 23 21 20 18 19 19 18 20 19 18 17 18 16 14 14 14 14 13 13 14 15 16 18 17 12 14 14
31 28 27 25 24 23 22 21 19 18 20 19 19 20 19 19 19 19 17 15 15 14 14 13 14 15 14 16 17 12 14 13
30 30 28 26 25 24 22 21 20 18 19 19 18 20 21 20 20 20 18 17 16 16 15 14 13 13 15 13 16 18 8 15
29 29 29 27 26 25 25 23 23 21 20 20 20 20 21 21 20 20 19 19 17 17 16 15 14 16 16 14 15 17 13 11
28 29 29 29 28 27 26 26 24 23 22 22 22 22 22 22 22 22 22 21 21 19 19 18 17 19 19 15 15 14 12 17
31 28 30 30 29 29 29 28 27 26 25 24 24 24 24 25 25 25 24 25 23 23 22 19 19 19 19 18 18 18 15 18
36 35 34 32 31 30 30 30 29 28 27 26 26 26 27 26 27 27 27 27 26 24 23 22 22 21 20 19 18 19 17 19
37 37 37 36 35 33 31 30 30 28 28 28 27 27 27 27 27 27 28 29 29 27 26 25 25 24 22 20 19 17 21 22
40 41 39 38 38 36 33 32 29 29 28 28 27 27 27 29 28 28 27 28 28 27 26 26 26 24 23 22 22 16 19 24
38 38 42 42 41 39 36 35 33 31 29 29 29 28 27 29 29 28 26 25 26 27 28 28 28 26 25 24 23 18 17 24
38 41 43 44 42 40 38 37 35 33 30 31 31 28 26 29 30 28 28 28 28 28 30 29 27 27 26 24 26 22 22 23
38 44 46 45 36 35 35 38 36 34 33 31 30 29 27 28 28 27 28 28 28 28 28 26 27 26 21 21 21 22 25 22
33 41 41 36 33 31 30 39 41 37 37 34 33 32 30 28 29 28 30 29 28 28 29 27 24 23 16 17 20 20 23 25
31 40 41 43 39 39 30 29 32 35 35 32 32 34 32 31 31 31 32 30 29 30 30 20 20 25 9 7 2 7 21 26
15 31 43 42 40 31 30 29 20 26 33 35 35 35 35 34 33 33 32 32 30 28 30 28 18 22 26 7 3 3 8 19
22 5 19 31 39 35 35 33 24 32 32 38 38 34 34 34 33 33 33 32 31 31 29 28 23 18 19 29 12 5 5 3
23 19 5 17 24 32 41 32 32 30 32 37 38 36 34 34 33 34 34 33 31 31 29 28 29 20 19 13 22 20 15 7
25 24 18 9 13 28 28 26 24 26 29 31 35 37 36 34 33 33 34 34 32 30 27 29 28 25 26 23 20 15 13 13
23 25 26 20 14 20 29 35 37 38 35 33 31 31 34 33 34 35 36 33 29 26 26 26 28 26 27 24 24 18 20 19
29 27 21 23 21 19 31 32 37 37 36 30 33 34 35 38 34 35 34 31 26 25 25 24 26 27 27 26 28 25 28 26

GFSFLT2_925_spd_120.txt.gz
Wind_Speed
34 33 30 29 28 28 27 26 25 25 26 26 25 24 23 22 21 20 18 16 15 15 15 15 15 15 16 14 12 11 12 13
34 34 32 30 29 27 26 26 25 25 25 25 25 24 23 23 22 20 18 16 16 16 16 16 16 15 15 15 12 10 12 14
34 33 32 32 30 28 26 25 25 25 24 24 24 25 24 22 22 21 19 17 17 16 16 17 16 15 15 16 14 11 12 14
36 34 34 33 31 30 28 27 27 27 26 25 25 25 24 23 22 21 19 18 17 16 16 17 17 16 16 16 15 12 13 14
39 38 35 34 33 31 30 28 29 28 27 26 25 25 24 23 23 22 21 19 18 18 18 19 17 16 16 16 16 14 13 14
41 40 38 36 33 30 30 30 30 30 29 27 26 26 25 25 25 25 24 22 21 20 20 19 18 16 15 16 15 14 14 16
39 40 40 38 35 30 28 28 32 31 30 29 28 28 28 27 26 25 25 24 23 22 22 21 20 18 16 16 16 14 13 14
38 42 41 40 38 35 32 30 30 29 31 32 31 29 28 28 27 27 27 27 26 25 24 23 22 21 18 18 17 17 16 15
37 43 42 41 41 39 36 35 32 32 31 31 32 31 30 29 29 28 28 27 26 25 24 22 22 22 20 19 18 18 17 17
38 38 42 42 42 40 38 37 35 33 32 31 32 32 30 29 29 29 29 27 27 26 24 21 22 22 22 22 20 19 18 18
33 37 41 43 42 39 38 36 35 34 33 33 33 32 31 30 30 29 28 28 28 27 26 24 23 23 22 22 22 21 20 19
39 41 41 42 35 31 35 36 36 35 36 36 35 33 32 30 30 29 28 29 29 28 27 24 23 22 19 20 23 22 21 22
24 28 36 35 31 30 27 31 34 36 37 36 36 34 33 32 31 29 29 31 30 27 26 24 22 21 16 14 18 22 23 24
8 20 27 32 31 33 25 27 24 28 33 34 35 33 32 33 33 31 31 31 30 27 28 20 20 23 9 4 2 6 20 26
14 10 24 34 33 25 18 18 18 24 28 34 37 37 36 37 36 34 31 32 30 31 28 26 17 21 25 9 2 3 3 10
13 10 4 20 28 26 27 23 18 23 27 31 40 44 43 41 37 36 35 33 32 31 29 28 22 17 18 27 13 7 3 1
17 14 9 5 16 23 28 23 25 22 29 31 32 26 32 34 36 35 34 33 29 33 32 31 30 21 19 14 19 14 10 3
22 18 15 10 7 7 14 23 25 26 22 27 28 33 33 35 37 37 37 36 34 31 31 33 32 31 26 26 20 9 9 8
24 22 22 19 12 6 1 5 12 29 30 25 24 23 28 30 30 37 39 39 35 33 32 32 31 29 29 28 28 27 21 17
24 21 19 22 20 15 10 10 14 16 25 26 29 33 32 25 35 40 36 37 36 34 35 33 34 32 30 28 26 27 28 24

GFSFLT2_925_spd_123.txt.gz
Wind_Speed
30 32 31 30 30 29 28 28 27 26 26 25 25 24 24 23 22 22 21 18 15 16 16 15 15 15 14 13 12 12 11 11
31 30 30 31 30 29 28 28 28 27 26 25 24 23 23 22 22 21 20 18 16 17 17 16 15 15 14 13 12 10 9 9
29 32 31 30 30 30 28 27 27 27 26 25 24 22 22 21 21 21 20 18 17 17 17 16 15 14 14 13 11 9 9 9
29 29 29 28 27 28 28 27 27 27 28 28 25 22 21 20 21 21 19 18 17 17 17 17 16 17 16 15 12 11 10 10
24 27 28 28 22 23 28 23 27 28 28 29 28 25 23 21 20 19 18 19 18 18 18 18 18 16 15 15 12 12 10 10
22 21 23 25 21 21 24 24 25 29 31 31 30 29 26 24 22 23 18 18 18 18 17 20 19 16 14 14 15 13 12 11
24 24 25 27 26 24 22 26 23 27 29 31 31 30 30 27 24 25 22 21 20 21 20 20 19 18 15 14 14 15 14 14
24 27 27 27 26 25 25 28 29 26 29 32 31 30 31 31 28 27 27 24 23 20 22 21 18 18 17 16 14 13 13 13
29 33 29 29 29 26 28 25 28 28 27 31 33 30 28 30 30 28 27 26 24 22 22 21 17 19 18 17 15 14 14 14
31 33 36 32 31 27 25 25 25 27 28 28 33 31 29 29 28 29 27 27 27 26 25 21 16 15 14 15 16 16 15 14
30 33 35 41 34 29 25 24 28 28 30 30 32 33 31 30 28 27 27 26 27 26 24 22 20 18 14 13 14 17 17 14
32 33 38 37 29 25 23 23 24 26 31 30 30 33 32 29 27 27 27 27 27 26 22 24 18 16 14 13 14 15 15 15
25 25 26 27 27 28 26 30 28 29 27 27 30 29 32 32 30 28 28 29 30 29 26 23 21 21 13 13 19 22 23 22
12 18 25 28 29 30 24 25 24 28 27 27 31 33 36 34 36 34 33 29 26 28 28 18 18 23 9 5 3 6 16 21
2 12 19 24 27 24 21 14 18 23 27 28 30 28 32 35 35 33 36 34 29 29 29 22 15 21 19 9 3 6 4 9
9 6 7 14 23 23 26 24 21 24 25 26 25 29 29 33 37 33 30 32 29 29 29 27 19 16 16 21 11 3 4 4
12 11 13 7 12 17 22 25 22 20 23 23 30 29 33 33 32 34 34 32 29 31 29 29 29 20 19 11 19 15 12 9
18 17 17 14 10 6 7 16 19 17 19 21 22 25 30 35 36 36 33 30 29 32 29 27 28 28 23 21 18 10 12 11
21 23 22 18 14 10 7 3 4 7 18 20 20 22 27 34 38 37 38 33 38 33 32 29 30 29 27 25 24 24 20 18
26 25 22 19 19 17 14 11 9 9 11 12 19 26 29 26 35 36 37 40 33 34 33 32 31 31 29 28 24 24 22 23

GFSFLT2_925_spd_126.txt.gz
Wind_Speed
19 23 29 29 29 27 26 26 26 25 25 25 25 24 23 22 21 19 18 15 13 14 15 14 13 13 13 12 11 10 6 5
19 22 22 22 24 26 25 26 25 25 25 24 24 23 23 22 20 20 18 16 14 15 15 15 14 13 12 12 10 9 5 5
18 21 21 20 19 21 25 25 25 25 24 24 23 19 20 20 19 19 19 16 15 15 15 15 14 13 12 12 10 6 5 5
19 21 21 20 19 19 21 20 21 22 21 21 20 19 19 18 19 20 18 16 14 15 15 15 14 11 10 11 8 6 6 4
19 21 22 24 23 21 22 22 22 22 22 21 21 19 19 20 18 18 17 16 13 14 14 13 13 12 11 11 9 8 6 6
21 23 23 24 23 24 22 23 24 24 23 23 23 21 20 20 19 20 19 18 17 16 15 15 14 13 11 11 10 9 7 6
23 25 26 25 25 23 24 24 23 22 23 25 24 22 21 21 20 20 20 18 19 18 17 16 15 14 13 11 11 10 9 8
23 28 28 27 27 25 24 24 22 22 22 25 29 24 22 22 21 20 21 19 19 19 18 16 16 15 14 12 11 10 10 9
22 27 31 31 29 27 25 24 24 24 23 24 31 27 24 22 22 20 22 19 20 19 18 17 16 15 15 14 12 11 10 11
25 26 32 34 31 29 27 25 25 23 23 22 24 28 25 24 22 22 19 23 20 20 20 17 18 17 16 16 15 14 13 12
27 27 31 34 33 29 27 24 22 24 23 24 24 26 26 23 22 22 21 22 25 22 19 18 18 18 17 16 15 16 15 14
29 28 30 34 32 30 27 25 24 24 23 23 22 24 26 26 21 22 27 21 23 23 20 21 18 18 16 16 15 15 15 15
24 29 30 32 34 33 30 30 29 26 25 23 23 24 26 28 24 26 30 25 25 23 25 20 17 15 9 9 10 13 16 17
19 25 31 32 34 35 34 31 29 28 25 25 26 26 25 29 27 25 26 23 22 24 24 16 17 18 9 8 5 12 16 20
17 17 22 30 32 32 30 26 23 23 25 26 28 28 27 27 28 27 25 26 24 26 27 23 16 20 22 12 4 7 7 11
13 13 15 13 30 28 31 30 25 24 23 23 24 27 28 30 29 29 28 25 25 24 25 24 18 17 18 25 25 14 5 5
14 13 6 6 7 18 24 24 23 18 18 17 22 22 27 29 29 30 31 28 25 26 24 29 24 22 21 19 24 23 21 14
15 12 12 10 8 10 15 14 15 14 11 12 14 21 24 30 29 30 31 30 31 32 31 31 27 26 26 25 20 18 17 15
18 16 17 16 16 15 14 8 6 7 5 2 11 17 19 26 28 28 32 35 34 33 37 39 36 32 31 28 27 25 21 20
20 20 19 21 19 17 16 14 10 7 5 2 7 5 15 20 24 31 33 34 34 31 29 31 33 34 32 31 28 28 26 25

GFSFLT2_925_spd_132.txt.gz
Wind_Speed
5 5 22 22 21 19 18 18 18 19 20 20 19 19 18 17 16 14 12 11 10 9 8 7 6 5 5 5 5 6 5 3
4 4 18 22 22 21 19 18 18 19 21 21 21 20 19 17 17 15 13 12 10 9 9 9 7 7 6 6 5 6 3 7
10 8 13 18 19 22 21 20 19 20 20 21 20 20 20 18 18 15 14 13 11 9 10 10 9 8 8 7 7 8 6 8
13 14 17 18 18 18 23 22 22 22 22 22 22 19 18 17 17 17 14 13 12 10 10 11 10 8 9 8 9 7 9 10
13 19 18 23 21 23 23 22 23 23 21 21 23 20 21 20 19 19 17 16 14 12 13 13 13 14 9 7 7 3 8 11
24 20 21 23 25 25 25 27 25 24 25 25 23 23 22 23 21 21 22 19 15 14 13 13 13 12 12 10 12 9 6 3
28 20 21 25 29 24 26 29 29 27 27 28 26 27 24 26 24 22 20 21 19 20 17 15 15 15 13 12 10 10 3 9
33 30 24 27 26 30 22 24 24 30 29 31 32 28 26 25 25 25 23 25 22 21 21 21 18 16 13 14 12 11 11 6
29 34 30 23 29 29 36 24 32 25 29 28 35 33 28 28 29 25 24 26 23 24 22 17 19 17 18 17 15 14 10 12
27 29 33 30 29 34 32 34 27 30 34 33 27 33 32 27 28 30 25 25 28 26 26 22 21 19 19 17 16 16 14 15
38 35 33 33 29 26 36 33 32 29 30 34 40 38 34 26 26 25 29 25 23 22 23 24 22 19 20 19 19 18 20 14
41 41 32 35 32 30 32 33 32 31 33 32 33 38 42 33 27 29 23 30 24 22 22 22 23 21 18 22 24 20 19 19
40 37 38 36 32 29 27 35 35 38 36 33 33 37 37 42 25 34 34 22 25 26 23 22 18 16 13 9 15 21 22 21
36 37 36 38 32 31 31 30 37 40 36 36 40 33 36 43 31 31 35 32 23 27 27 21 26 22 11 5 3 9 19 24
30 36 37 36 37 35 31 33 32 40 39 38 32 35 38 40 43 27 32 32 30 29 30 26 20 25 23 7 2 4 6 21
32 30 35 33 34 31 28 28 27 37 40 35 34 40 36 40 39 39 28 35 29 28 31 31 25 23 22 29 22 10 2 2
32 32 29 27 31 29 24 24 30 35 38 37 38 41 39 33 35 34 30 32 34 27 31 31 32 23 21 17 26 24 19 7
33 35 27 25 27 27 17 19 23 27 21 28 41 33 33 35 38 34 38 26 29 33 27 31 30 31 23 27 23 13 18 12
33 35 30 25 28 22 15 8 15 18 9 13 27 15 15 1 35 31 29 28 28 27 29 29 30 29 32 29 28 26 23 22
36 37 32 27 24 22 17 23 24 27 34 29 8 12 10 9 36 3 14 18 27 24 29 28 29 32 31 35 27 27 25 25

GFSFLT2_925_spd_135.txt.gz
Wind_Speed
1 2 7 16 17 17 17 17 18 19 19 19 19 18 18 17 16 15 14 13 11 9 9 8 8 7 7 8 10 10 13 8
4 6 6 19 20 18 17 17 17 18 20 20 20 19 19 18 17 16 15 14 12 10 10 10 9 9 9 9 10 11 7 12
9 9 9 13 20 19 19 18 18 18 20 21 21 21 20 19 18 17 16 15 13 11 11 12 11 10 10 9 10 11 8 11
13 12 13 11 20 20 21 20 19 20 21 23 22 22 22 22 20 19 17 16 15 13 12 12 12 11 10 10 10 11 7 12
24 18 16 16 17 20 22 24 23 23 24 25 25 24 22 22 21 22 19 18 17 16 15 15 14 12 10 9 10 7 4 14
31 29 21 20 21 24 24 26 29 28 27 27 28 27 25 23 24 25 24 23 21 19 17 16 15 15 10 9 9 6 7 13
42 40 35 26 28 29 26 34 33 34 34 31 30 30 30 28 27 27 26 24 24 21 19 18 18 18 15 12 10 8 11 14
42 41 40 37 29 28 32 32 35 36 36 35 33 31 32 30 30 29 27 25 25 24 22 19 19 19 17 16 11 11 13 11
38 43 41 40 38 35 24 35 33 35 37 35 37 36 36 33 34 31 29 26 25 26 24 21 21 20 21 16 15 12 9 11
40 40 39 37 38 37 34 24 32 32 35 40 39 41 38 36 34 36 32 28 28 28 26 26 23 23 23 19 19 17 14 12
40 41 39 37 35 37 36 34 30 35 39 39 40 42 42 40 38 37 35 32 31 32 30 29 25 25 22 20 20 19 19 17
34 38 38 37 33 33 37 34 33 24 38 36 38 39 43 42 35 35 36 36 33 33 32 30 29 25 22 22 21 22 24 22
35 37 39 37 33 30 29 33 34 37 25 36 35 42 43 45 42 32 37 40 37 33 30 30 27 26 20 18 24 24 25 25
34 36 35 37 30 29 25 28 33 34 36 35 36 52 48 51 45 36 38 40 37 33 33 26 24 26 14 6 2 7 22 27
35 34 33 35 33 29 25 24 29 31 28 28 32 44 51 48 48 42 39 38 38 35 36 31 25 27 25 8 2 5 4 24
32 32 33 31 30 26 26 25 27 31 33 33 37 38 41 47 50 44 43 43 37 36 35 34 27 25 27 30 15 4 4 2
31 32 33 35 29 26 26 27 24 32 32 33 32 35 43 46 51 44 41 43 39 38 32 34 33 24 26 22 27 22 17 4
33 33 33 33 33 28 27 27 27 29 32 30 19 26 37 44 46 43 36 38 40 41 35 35 34 30 29 28 24 18 20 11
31 32 33 35 34 28 26 27 27 18 14 8 11 6 3 12 2 27 24 35 35 38 37 34 38 35 33 33 30 31 26 22
32 33 34 35 33 33 27 23 20 14 9 16 9 8 15 19 20 16 10 3 20 35 38 34 35 37 34 31 28 32 28 27

GFSFLT2_925_spd_138.txt.gz
Wind_Speed
3 4 5 11 15 14 14 15 16 17 17 18 18 18 18 18 16 15 14 13 12 10 10 10 9 9 10 11 13 9 11 12
10 8 7 9 17 18 16 15 16 17 17 17 18 18 19 19 18 17 16 15 14 12 11 11 10 10 10 11 14 13 12 10
24 15 16 14 15 18 17 17 16 17 18 20 20 21 21 21 21 20 19 18 16 14 12 12 11 11 11 12 12 12 10 12
27 26 27 22 17 18 21 20 20 19 20 21 23 24 24 23 22 21 20 18 17 15 14 13 13 13 12 13 13 13 13 14
34 31 30 30 20 21 23 24 25 24 24 24 25 25 25 24 23 22 21 20 19 17 16 16 15 15 14 12 13 14 10 15
33 32 31 33 30 25 23 28 29 29 28 26 27 28 28 28 27 26 26 25 23 21 19 18 17 16 15 14 15 13 11 17
32 35 33 34 32 32 29 25 28 34 34 32 32 32 33 32 31 30 31 29 27 25 22 20 20 20 18 15 14 15 11 14
41 35 33 36 34 32 33 30 27 26 36 38 38 39 38 36 34 33 33 33 31 28 26 24 22 22 22 18 17 14 16 18
41 38 35 35 35 35 34 33 30 28 22 40 40 43 42 40 38 37 37 35 32 30 28 25 23 24 24 22 19 17 17 20
40 40 41 37 34 37 35 36 34 31 27 23 43 47 46 44 43 42 40 37 35 33 32 31 27 25 26 23 24 21 18 22
36 36 38 42 37 35 33 34 35 34 31 29 22 43 47 46 42 41 41 40 37 36 35 34 32 30 28 26 26 20 21 21
33 33 36 40 38 30 30 27 32 35 33 33 29 24 45 43 41 42 43 42 40 38 37 37 34 31 29 27 25 23 25 24
35 35 35 34 34 33 30 29 27 33 33 33 37 33 31 31 39 41 46 40 40 43 39 36 34 33 27 23 23 24 26 29
31 33 33 33 31 32 30 27 27 28 33 34 36 34 30 36 42 43 48 38 38 40 39 27 27 35 20 11 3 11 27 32
33 33 33 33 35 31 29 28 26 25 24 27 31 29 32 28 37 33 45 44 40 42 41 33 26 32 32 13 3 5 3 19
32 33 32 31 32 29 26 26 25 25 29 29 32 32 29 34 29 40 39 42 40 45 43 42 33 26 32 36 15 11 4 2
32 33 32 30 30 30 29 26 26 26 26 34 33 38 30 32 29 30 47 40 43 40 40 41 41 30 32 26 24 16 10 3
32 31 31 32 30 29 28 28 27 24 25 26 27 29 28 21 13 10 18 51 45 43 43 40 38 32 31 28 26 19 14 5
31 32 33 36 34 31 30 27 25 22 22 19 21 12 8 14 17 18 23 29 30 41 35 31 33 34 30 30 27 26 20 20
31 34 30 34 33 34 30 30 22 20 19 15 7 7 10 11 8 8 6 5 23 10 16 27 28 28 31 32 29 28 27 25

GFSFLT2_925_spd_141.txt.gz
Wind_Speed
16 14 13 12 12 12 11 11 12 14 16 16 15 15 15 15 15 14 13 13 13 12 12 12 11 11 11 10 12 11 10 11
31 29 20 15 16 14 14 13 15 16 16 16 16 16 16 17 16 15 15 15 14 13 13 13 12 11 11 11 12 10 13 12
31 30 31 27 19 18 17 17 17 17 18 19 18 19 19 19 19 18 17 17 17 15 15 14 14 14 14 14 15 13 12 11
31 30 29 28 25 22 17 17 19 20 20 21 21 22 23 23 23 21 20 20 19 17 17 16 16 16 16 16 17 17 13 13
33 32 30 28 27 26 25 21 16 22 24 23 23 24 25 26 25 24 23 22 21 20 19 19 19 18 18 19 18 18 16 15
34 34 32 31 29 27 25 24 22 19 21 30 28 27 26 28 29 28 27 27 26 24 23 22 21 20 20 20 19 20 17 16
34 35 33 35 33 31 29 25 23 22 21 21 32 31 31 29 30 32 32 31 31 29 27 24 24 23 22 21 20 20 19 17
34 33 32 37 34 34 33 31 26 25 23 21 20 33 38 36 35 35 36 32 33 34 32 29 27 26 25 23 21 20 19 18
36 34 35 37 38 37 34 32 30 30 28 24 22 23 34 38 37 38 40 36 30 34 34 32 30 28 28 28 24 22 21 20
32 33 32 35 37 37 35 31 31 31 31 30 28 28 23 32 37 40 35 35 32 31 34 35 34 32 31 31 30 25 24 23
33 38 40 38 31 33 34 32 28 30 30 32 30 30 29 32 25 37 39 36 34 32 30 37 34 33 32 31 32 30 29 27
29 31 35 39 35 29 26 27 28 25 26 32 31 30 30 30 33 27 39 36 36 34 33 32 32 33 32 31 33 31 31 31
30 29 31 33 34 32 31 27 29 29 25 25 33 35 28 24 30 34 36 39 40 38 33 29 30 33 23 24 31 33 32 29
33 33 33 30 28 29 29 30 30 29 30 29 31 29 22 18 22 30 34 30 33 38 37 28 29 35 18 9 4 14 31 32
31 30 31 31 31 31 29 28 26 27 25 26 28 28 25 25 29 32 23 25 40 41 38 35 29 28 31 11 3 7 5 18
32 32 32 31 33 31 29 27 26 27 31 29 31 31 34 30 27 28 35 23 37 35 35 41 30 25 26 33 18 7 4 2
30 30 31 31 33 31 30 27 28 30 28 28 31 32 31 30 26 27 28 28 22 40 46 44 44 34 31 25 24 14 9 2
28 29 31 32 35 34 29 27 30 29 26 26 27 26 25 29 23 22 24 23 21 31 46 41 41 36 33 30 29 20 9 4
28 31 32 33 33 33 33 29 27 27 25 23 22 22 20 8 16 18 16 16 26 22 19 28 37 32 30 34 30 29 26 21
30 32 31 34 33 32 29 29 26 22 22 26 21 19 16 9 6 17 14 9 13 10 31 13 13 23 21 22 25 31 32 28

GFSFLT2_925_spd_144.txt.gz
Wind_Speed
29 28 22 17 14 12 11 11 11 10 11 11 12 13 14 15 15 15 15 15 15 14 13 13 13 13 12 12 13 14 13 11
29 28 27 22 21 18 11 10 9 12 12 13 14 15 16 17 17 17 17 16 16 15 14 14 14 14 13 13 15 16 13 12
30 28 27 25 23 22 21 12 12 12 12 17 16 18 18 20 21 20 19 18 18 17 16 15 15 14 14 14 15 17 14 15
32 29 27 26 25 23 21 19 16 13 15 15 17 20 21 22 23 23 21 20 20 19 17 17 17 17 16 16 18 17 15 16
32 31 30 29 27 26 23 21 19 17 14 15 17 18 21 24 25 25 25 24 23 22 21 20 20 20 19 19 19 19 19 16
32 32 32 33 32 29 27 25 23 21 18 14 15 19 22 24 26 29 30 29 28 27 26 24 23 22 21 21 21 21 21 18
33 32 33 35 34 33 31 29 27 24 23 20 17 17 17 26 29 29 29 31 31 30 30 28 26 24 24 23 23 23 22 21
33 32 34 35 35 34 33 31 28 28 28 24 22 19 22 19 27 30 31 32 30 29 30 32 31 28 26 26 25 24 23 24
33 31 33 35 36 35 34 30 30 30 29 29 26 25 23 25 25 27 33 35 29 30 32 30 33 31 29 28 27 26 26 26
27 28 32 34 34 34 32 32 29 29 30 29 29 28 25 23 27 28 21 36 35 32 31 30 31 35 32 31 30 28 27 27
30 31 33 35 35 33 31 30 30 27 29 29 28 29 26 22 25 29 30 20 36 34 32 32 28 28 36 33 32 33 32 28
23 25 28 28 27 26 25 25 25 28 27 23 26 26 27 28 30 28 28 36 27 35 34 33 30 26 27 34 34 34 35 33
25 26 27 27 28 30 30 27 27 27 26 28 27 28 28 27 26 26 30 29 38 29 37 36 31 30 21 19 29 32 35 36
25 25 25 25 24 26 26 28 27 27 27 26 24 25 29 29 25 25 23 25 26 34 34 34 31 31 18 10 5 12 30 38
26 26 27 27 28 28 28 27 26 24 25 27 27 27 32 31 30 31 33 34 35 31 22 21 16 22 30 10 3 6 6 15
25 27 30 28 29 29 31 28 26 28 28 30 31 31 32 29 29 33 35 32 33 30 32 47 39 17 23 31 16 8 4 2
29 29 30 30 31 31 30 28 28 29 28 28 27 29 29 28 30 31 33 33 35 32 27 31 39 23 31 20 24 11 11 3
28 30 29 30 33 30 29 30 31 28 27 24 25 27 28 29 25 28 32 32 33 34 30 31 30 32 29 27 26 18 9 4
26 27 27 30 30 30 30 29 29 26 25 23 23 24 24 27 31 30 21 28 31 31 30 29 30 24 27 33 31 33 33 26
25 26 28 29 30 31 30 29 28 24 25 27 24 23 26 31 28 23 16 18 24 31 35 31 29 23 26 15 26 27 21 25